GFSSE_850_rhum_036.txt.gz
RH
50 74 94 83 84 84 77 80 81 83 87 78 79 82 84 82 80 76 69 63 53 42 39 37 60 76 61 70 70 67 61 55 56 55 54 48 36 23 23 30 45 38 61
30 61 99 97 97 70 79 78 78 76 71 72 74 73 77 74 69 55 48 49 45 74 88 61 90 92 90 75 68 74 70 61 52 41 32 34 32 23 22 34 49 46 54
35 35 82 81 76 89 90 82 81 85 89 85 84 95 57 51 49 18 24 29 35 96 100 98 99 100 78 76 68 58 48 34 31 35 37 44 45 42 32 36 47 98 55
39 35 47 43 34 80 85 78 89 91 88 88 93 66 68 49 21 16 16 17 40 98 97 97 92 81 78 68 56 28 27 35 48 51 54 58 61 63 62 54 51 55 68
46 34 29 31 32 45 48 43 55 82 89 87 57 79 70 32 19 18 17 18 26 49 62 56 56 64 53 30 32 36 49 58 69 74 74 85 89 84 70 84 84 76 68
50 39 29 31 33 35 33 34 33 37 51 46 93 87 66 26 20 21 21 20 38 65 67 57 39 31 32 42 39 52 64 74 78 82 74 88 87 89 80 84 85 89 93
47 43 31 31 30 33 35 27 22 26 32 82 96 85 65 26 24 25 27 26 25 27 28 32 39 46 55 57 58 63 69 75 78 82 78 78 82 74 55 55 76 81 84
48 42 33 33 33 36 36 26 22 23 54 90 96 81 50 28 27 28 30 33 34 36 41 49 53 57 62 66 66 65 70 77 81 85 84 84 85 73 59 55 66 81 86
60 46 36 37 39 43 41 31 23 24 69 93 86 58 34 35 36 34 32 35 40 45 46 51 63 69 66 63 59 61 65 72 81 80 70 72 75 58 65 79 85 74 65
66 57 43 43 42 42 40 36 28 25 35 51 44 33 35 50 43 42 40 37 44 47 52 61 79 64 57 56 59 59 62 61 59 56 55 56 58 73 82 80 83 92 70
74 64 56 52 47 45 45 45 37 23 32 41 35 35 50 64 70 54 47 44 44 54 65 81 68 64 61 59 59 60 58 52 46 44 41 46 60 76 76 84 91 86 74
77 77 69 62 56 56 51 48 45 36 26 36 42 47 54 64 70 70 60 55 46 58 74 65 66 67 67 64 65 66 62 46 35 32 34 54 86 84 82 96 93 68 44
66 72 72 76 76 77 72 62 50 43 34 29 39 47 58 65 72 72 71 61 55 48 61 65 70 72 69 67 68 55 34 29 25 24 37 84 81 74 59 76 49 40 36
51 56 69 74 74 76 77 78 64 53 44 35 32 41 53 60 64 67 65 64 59 47 57 68 73 69 64 67 64 38 28 23 21 22 26 32 49 53 48 36 35 36 34
63 60 62 70 73 76 75 76 77 70 60 48 36 34 46 51 57 60 64 69 68 56 56 68 70 65 67 67 64 34 25 17 15 18 21 26 32 37 41 36 35 34 29
63 59 58 62 68 73 74 76 78 78 72 66 57 41 41 50 55 61 62 64 69 60 57 69 72 68 71 69 64 30 20 15 15 16 20 23 27 30 32 32 30 25 21
63 62 62 66 68 69 68 72 79 78 77 75 72 63 44 43 53 55 53 66 66 63 62 75 74 70 74 74 53 26 18 17 17 18 21 24 26 27 27 25 22 22 20
40 64 66 66 70 72 70 71 73 77 78 79 75 70 66 60 48 46 52 74 76 67 74 82 85 76 78 77 44 23 20 20 19 19 21 25 26 25 25 25 21 18 17
26 32 43 56 61 52 62 70 68 70 73 73 75 80 81 76 66 62 76 84 76 69 79 87 90 82 82 79 38 24 25 23 21 21 23 26 25 25 25 23 20 18 18
25 25 29 32 31 31 33 50 69 66 69 73 74 77 82 80 76 80 89 90 74 69 82 87 83 83 85 77 32 29 29 26 24 22 26 27 27 28 30 28 22 20 19
32 32 26 26 28 30 30 31 39 59 66 67 66 66 77 80 82 81 83 89 82 80 84 83 84 88 85 76 32 34 32 28 25 24 27 29 28 28 31 28 23 21 20
30 31 32 30 28 29 30 30 29 30 42 55 62 60 64 71 76 77 73 66 85 84 85 83 79 87 81 76 37 37 32 34 28 28 28 30 29 30 31 30 25 22 22
24 26 29 30 33 32 32 31 30 36 38 50 66 66 59 61 75 83 82 69 81 84 81 76 78 81 73 70 55 38 36 33 33 33 30 31 30 30 30 29 27 24 23
23 23 20 24 28 29 31 34 33 31 33 32 41 53 57 57 61 73 78 78 79 85 83 79 79 82 74 67 60 40 41 35 31 33 33 32 29 28 28 28 26 25 24
24 24 25 23 23 27 28 30 31 34 35 39 43 54 61 61 59 62 65 69 68 83 85 83 84 85 83 68 64 40 43 43 42 39 36 37 33 30 28 28 27 26 21
33 28 25 25 26 26 27 28 28 28 29 36 45 55 57 63 60 64 64 64 64 69 79 76 80 93 85 76 59 41 44 45 45 46 45 43 37 34 30 27 25 22 22

GFSSE_850_rhum_039.txt.gz
RH
44 55 94 85 98 74 75 77 73 77 86 100 97 92 95 94 88 83 76 68 48 37 41 41 77 75 59 63 59 59 61 62 61 60 58 51 38 23 20 21 24 36 67
33 43 88 91 96 85 79 80 86 87 90 98 95 84 84 82 76 68 56 52 48 70 62 84 93 88 88 65 68 66 59 55 50 45 36 29 26 20 25 37 46 50 75
37 38 78 94 86 83 85 79 84 79 79 78 86 78 80 70 52 25 32 37 88 97 75 96 98 94 75 71 62 56 48 39 33 32 34 42 38 35 36 45 72 63 69
41 38 52 65 67 84 89 78 77 85 86 82 92 52 53 43 20 16 18 28 88 99 94 99 95 82 72 60 43 27 31 37 44 48 50 57 55 62 66 62 56 58 65
38 31 30 59 48 94 82 77 81 81 86 84 83 60 51 18 17 16 17 22 67 90 99 91 79 68 54 29 25 34 48 56 60 61 66 76 79 79 88 86 89 83 81
42 35 26 43 55 30 53 60 68 74 86 91 58 72 50 21 22 19 19 28 50 56 50 46 45 36 30 34 40 52 63 68 71 69 76 85 90 79 65 80 80 88 88
49 42 32 28 27 32 31 34 34 38 75 82 91 80 54 26 26 26 23 30 48 47 35 30 32 38 47 48 54 61 68 71 72 74 71 74 81 70 52 68 84 85 90
53 48 34 35 34 30 28 30 26 26 31 77 98 81 58 31 31 31 31 29 28 30 36 44 52 53 55 61 62 62 66 69 75 79 78 77 83 62 73 71 64 79 88
58 52 38 33 36 35 33 25 24 25 41 98 98 80 45 33 34 35 38 39 40 44 50 55 70 66 63 57 54 54 59 68 72 70 62 65 56 69 73 88 84 70 63
59 53 40 37 38 39 34 27 22 26 71 98 99 92 40 36 39 39 36 42 48 50 53 62 74 61 58 57 58 59 58 58 57 55 53 50 71 86 86 89 88 79 70
64 59 50 43 43 43 42 36 28 22 28 59 89 73 39 44 42 38 44 40 49 54 63 79 70 62 59 60 60 61 59 52 45 44 42 53 70 72 85 81 83 80 66
63 64 58 53 51 48 47 44 40 30 26 32 38 36 42 58 62 55 46 48 44 57 86 78 64 64 64 64 65 66 60 44 34 31 33 66 86 86 79 73 78 62 34
59 63 66 64 60 57 55 54 49 43 34 26 35 35 42 55 65 69 66 53 51 46 58 58 62 64 63 62 64 60 37 29 24 23 30 88 88 70 56 43 40 35 30
71 66 68 71 72 71 74 75 71 57 48 39 29 36 40 53 64 70 67 62 55 48 49 57 60 63 61 61 62 56 33 25 21 19 25 37 42 44 38 32 31 31 29
82 60 57 67 68 70 69 70 82 77 63 53 44 35 41 48 57 64 67 66 65 58 47 54 60 63 60 63 63 59 31 22 15 17 22 27 31 32 33 29 29 29 26
70 66 60 59 61 60 66 71 73 79 75 70 62 52 39 42 50 58 64 67 74 70 58 55 64 67 64 66 66 60 29 18 15 17 20 24 27 29 30 31 28 24 21
49 57 66 66 64 61 57 64 70 71 80 80 75 71 62 45 42 49 58 61 66 70 63 58 65 71 66 70 71 57 28 19 17 17 20 22 26 27 27 25 22 21 20
28 31 40 61 66 66 64 63 63 75 77 76 77 81 80 69 48 46 53 55 59 69 70 65 73 78 71 75 76 59 28 21 20 19 20 22 24 24 24 24 22 18 17
24 25 28 37 58 65 64 65 66 69 72 72 75 80 81 78 69 56 49 53 53 74 76 72 80 87 80 80 80 63 28 24 23 22 22 23 24 23 22 22 20 18 17
24 26 26 28 38 59 66 67 62 53 61 66 65 68 72 78 80 79 70 60 59 79 82 77 86 86 83 81 83 62 29 28 26 24 24 24 25 24 23 22 22 20 19
33 33 31 28 27 33 38 45 36 35 41 57 60 63 63 66 70 80 79 73 80 88 78 72 86 85 80 77 82 55 32 31 28 27 24 24 26 26 24 25 25 22 21
27 30 31 33 32 31 31 32 32 31 33 35 44 54 59 61 61 66 70 79 87 90 80 75 83 83 78 82 79 57 34 33 33 30 25 26 27 28 26 28 28 26 24
26 26 27 29 31 32 34 33 32 32 38 38 36 38 55 57 58 58 60 60 69 87 82 76 82 82 79 80 75 63 39 36 35 34 29 28 28 30 29 29 30 29 27
26 26 26 25 25 30 31 34 35 34 35 31 30 30 32 48 58 62 59 63 62 69 81 82 80 78 80 85 74 67 62 38 34 36 36 32 31 32 32 31 30 29 28
36 30 28 26 27 26 28 33 32 31 32 33 34 37 40 39 55 58 63 61 62 63 68 81 83 82 82 85 82 70 59 47 39 36 36 37 34 35 34 32 31 30 29
32 36 36 34 32 28 29 32 32 34 34 34 34 37 38 41 44 61 65 66 64 64 65 67 70 86 90 87 89 82 66 57 43 40 40 40 40 39 37 34 32 31 30

GFSSE_850_rhum_042.txt.gz
RH
49 50 80 87 75 79 73 72 71 80 84 93 97 93 95 95 92 85 78 63 36 39 36 74 72 76 74 57 62 69 67 64 61 59 57 50 34 21 22 23 43 88 40
51 76 85 93 86 72 78 75 76 82 91 95 99 94 92 86 81 72 56 42 64 53 50 91 84 87 59 47 64 59 57 55 51 46 37 27 24 22 28 40 44 55 66
83 91 80 98 84 80 85 80 84 87 90 98 98 83 82 76 58 34 37 63 92 77 78 94 94 85 66 62 53 55 48 42 35 29 34 80 39 37 41 45 49 63 40
91 92 94 96 84 81 88 85 82 78 81 85 94 53 63 48 30 21 34 87 93 90 96 100 93 79 61 45 32 29 28 34 38 43 88 89 89 72 80 68 62 59 58
92 90 92 69 93 90 76 77 77 78 85 96 65 60 35 17 16 16 27 76 92 94 95 89 87 68 40 26 29 42 52 58 59 80 94 98 98 89 88 87 91 85 85
90 88 65 68 98 92 78 86 94 84 92 97 67 57 17 17 15 16 17 28 70 98 94 76 54 34 30 30 45 57 64 64 70 87 96 84 100 58 62 78 86 90 86
89 90 81 78 99 96 70 73 93 83 95 87 65 52 21 20 19 18 25 44 62 64 49 38 29 32 41 43 52 57 62 65 92 92 94 94 95 57 54 84 91 89 92
91 93 94 97 95 65 51 48 53 77 88 80 79 58 27 23 25 24 26 41 41 32 29 34 43 49 54 58 59 60 64 66 90 95 95 93 65 61 77 69 64 83 91
93 93 87 74 52 52 38 37 34 40 43 72 97 80 39 28 29 30 30 30 32 36 45 52 56 62 61 55 53 54 58 66 92 87 85 85 53 82 86 91 85 73 67
90 91 88 92 76 42 41 37 29 35 47 98 96 98 51 35 35 35 38 40 42 46 55 86 68 61 56 54 55 56 56 55 69 53 75 84 82 87 91 94 90 72 67
85 92 90 88 84 75 75 42 36 38 58 98 99 99 76 79 53 44 41 44 50 49 56 81 65 59 56 56 56 57 56 54 53 66 80 68 84 77 88 90 70 68 65
67 92 94 93 88 74 58 63 52 54 58 94 96 93 92 92 93 95 54 45 52 57 79 79 63 59 59 59 59 62 60 45 48 73 85 59 80 84 70 55 49 46 29
67 64 60 63 82 74 56 64 81 90 90 90 94 94 90 94 95 93 93 54 50 56 92 73 63 62 62 61 62 62 44 31 58 75 89 84 90 77 43 41 29 27 25
66 66 66 63 61 61 64 57 74 71 70 83 85 88 85 80 94 96 98 99 96 82 96 81 65 60 62 59 62 60 44 29 54 72 91 74 73 46 35 30 27 28 26
64 73 78 71 69 67 67 78 87 77 71 64 51 64 88 84 90 94 97 98 97 95 87 55 57 60 63 58 61 61 51 30 38 71 89 48 36 36 32 29 27 26 23
82 74 63 64 66 75 75 72 74 74 79 78 69 58 44 66 75 90 94 79 92 95 71 55 54 59 62 60 63 64 56 31 28 50 79 58 32 32 33 30 29 25 21
61 76 91 83 59 57 60 67 72 75 80 75 79 78 67 55 51 69 93 95 85 96 77 64 55 56 62 64 67 69 58 31 25 34 46 81 30 28 29 28 25 22 20
36 43 60 84 83 65 63 59 58 63 72 72 76 74 75 76 64 58 88 94 95 94 72 68 62 61 68 67 70 72 64 35 23 32 22 23 34 40 24 24 21 20 17
29 30 28 36 73 83 71 60 62 63 66 69 73 69 69 77 79 75 70 84 95 93 65 69 68 65 74 75 74 77 72 41 24 23 22 22 22 25 27 20 20 19 17
26 26 26 25 34 65 85 72 64 66 63 62 68 68 68 69 71 76 76 63 79 89 64 69 76 72 81 84 81 81 78 50 27 26 25 24 23 23 23 21 21 20 20
33 33 33 30 29 31 69 96 68 62 56 62 52 58 69 61 62 60 66 73 72 65 59 59 80 78 84 87 82 78 77 53 30 28 27 26 25 24 24 23 24 25 23
28 30 31 32 33 32 34 71 58 67 60 59 45 40 56 60 54 60 63 63 77 73 64 64 86 81 85 85 79 70 57 54 40 31 30 29 27 26 25 25 25 28 28
24 25 24 27 29 31 33 35 67 85 81 54 37 34 36 43 52 57 57 58 62 71 71 74 86 79 75 82 81 69 61 55 48 39 33 31 28 27 26 27 27 29 30
35 30 27 27 26 29 30 32 36 78 74 48 33 31 32 34 41 61 54 57 56 57 65 65 78 79 76 82 81 78 74 52 40 42 37 34 31 29 28 29 31 32 34
35 36 36 32 28 26 26 29 35 77 84 84 88 83 46 35 33 36 46 54 59 64 61 64 76 86 80 82 78 79 80 69 54 42 42 37 35 33 32 31 34 36 36
39 36 33 36 36 32 29 28 29 33 71 85 91 90 71 69 44 41 46 57 55 56 66 64 64 84 88 86 79 84 83 79 66 56 41 41 39 40 38 37 38 38 36

GFSSE_850_rhum_045.txt.gz
RH
78 30 38 75 93 89 88 74 73 80 82 88 90 89 90 92 92 85 74 54 39 38 42 82 70 80 68 56 65 72 70 64 61 58 51 36 22 16 20 30 90 80 51
78 38 48 81 90 86 78 70 80 84 87 93 96 96 94 89 79 68 48 49 53 35 80 87 66 56 46 41 56 54 58 57 51 41 36 36 23 26 37 36 41 41 42
80 78 55 81 68 73 70 79 79 83 92 98 99 100 84 76 56 26 41 90 80 60 93 92 90 74 57 47 58 51 44 39 32 37 76 79 44 46 47 48 48 35 33
80 93 90 93 69 83 83 80 83 85 86 86 85 62 70 49 27 31 77 92 91 82 96 93 84 76 46 31 32 28 27 31 37 71 78 80 95 88 79 79 68 59 56
80 87 89 94 80 90 91 86 84 81 84 90 61 52 29 17 16 28 73 90 90 92 92 87 82 61 27 22 31 41 49 53 68 86 92 94 93 81 79 84 88 88 84
76 78 83 93 84 91 80 77 86 86 98 96 63 46 16 15 16 19 30 73 90 95 89 86 62 32 29 37 50 58 58 66 86 89 91 88 92 51 78 83 88 88 91
70 80 77 50 91 92 82 79 90 96 97 90 64 37 17 17 16 16 20 36 82 84 70 41 30 33 37 46 53 60 62 74 88 88 87 92 79 52 68 87 87 93 96
73 84 91 79 98 98 96 75 91 96 97 97 67 42 20 20 18 19 34 50 58 49 35 28 34 44 48 52 55 56 58 61 86 87 88 91 48 78 82 70 55 74 72
77 80 90 81 100 98 93 73 57 72 88 96 90 64 26 23 23 22 27 33 31 28 32 42 47 54 54 50 48 50 54 67 84 87 76 83 72 88 88 82 75 65 60
82 78 94 94 94 81 45 43 42 42 45 60 96 98 54 30 29 29 28 28 31 37 45 54 56 54 50 48 49 50 50 56 79 70 73 67 82 92 88 84 76 60 54
84 81 79 82 89 88 85 47 40 35 43 94 98 99 57 49 37 34 35 39 39 62 53 61 59 54 50 50 51 52 51 68 63 65 81 70 87 87 81 66 55 49 46
88 80 77 76 80 80 83 78 43 40 57 98 97 98 95 90 87 75 57 41 45 45 52 63 65 56 54 55 54 57 61 59 59 70 81 57 63 71 68 46 40 35 27
66 87 80 81 80 82 85 87 87 88 92 95 98 98 95 84 87 93 89 44 42 51 61 79 66 58 60 62 59 64 61 46 56 72 82 60 84 76 58 33 30 26 25
96 77 74 87 86 86 86 86 81 84 86 82 85 85 85 82 88 93 97 97 79 81 95 93 85 82 63 59 59 61 54 48 58 70 82 71 79 61 36 25 25 24 24
90 96 70 71 89 88 92 87 84 83 88 87 81 80 79 82 85 87 86 95 92 88 88 90 90 76 60 60 56 58 56 53 61 70 85 61 58 42 29 26 24 24 22
79 87 96 81 66 62 75 94 91 89 89 94 90 80 79 79 84 88 88 92 98 89 88 89 84 72 62 58 57 59 57 56 60 69 80 57 32 30 27 26 24 23 20
62 70 82 93 58 58 68 67 70 91 94 91 95 96 88 80 78 85 88 88 98 96 93 90 82 71 61 56 55 60 63 58 53 63 72 82 44 27 27 26 26 24 20
41 45 57 75 92 94 96 70 65 64 79 95 92 96 98 93 80 78 81 88 91 96 95 94 89 72 59 55 61 60 65 65 56 59 65 73 64 34 27 27 24 22 19
36 37 39 48 64 79 88 97 91 66 71 64 99 96 96 99 98 92 85 86 89 89 92 96 91 72 62 60 62 61 67 70 60 52 55 45 52 60 40 24 22 20 19
29 31 33 35 38 50 64 77 87 75 76 67 76 98 95 89 97 100 93 91 91 89 88 96 92 75 66 62 66 64 72 76 67 54 41 46 40 30 36 28 22 20 19
34 36 37 36 35 37 45 58 73 77 47 48 54 67 100 99 99 94 89 90 94 92 86 88 88 76 71 70 67 73 72 75 71 58 40 42 39 30 26 28 21 21 20
32 34 36 37 39 38 34 41 51 84 52 38 44 50 56 76 94 98 87 79 86 85 90 96 90 77 76 76 70 75 68 68 73 65 48 38 38 33 29 25 23 24 25
40 34 29 31 35 38 38 37 39 63 86 90 74 68 52 64 78 98 98 92 88 94 86 80 86 78 66 75 79 73 69 66 58 60 53 42 41 40 34 28 26 26 28
44 34 31 28 26 26 29 34 40 50 69 84 87 92 76 52 45 60 100 99 98 94 99 85 84 83 76 78 84 77 72 59 55 52 52 44 41 42 41 33 31 30 30
36 32 34 36 36 32 28 28 31 35 46 67 79 86 84 88 74 44 56 99 99 86 88 99 87 82 74 84 81 76 81 72 62 54 48 50 44 38 42 40 36 37 35
60 42 36 34 37 43 37 34 31 33 47 61 75 80 84 90 94 95 83 84 98 100 99 85 88 91 72 86 91 87 79 79 76 69 56 50 48 44 39 40 42 42 39

GFSSE_850_rhum_048.txt.gz
RH
64 29 30 74 90 87 81 77 75 79 81 85 86 88 87 91 91 80 62 40 37 40 88 85 81 73 60 59 73 72 69 62 57 47 39 21 18 26 34 61 50 40 85
43 27 35 83 94 89 87 73 83 85 92 94 97 92 89 88 76 55 42 58 32 72 87 71 53 52 38 42 53 55 58 52 40 47 43 34 32 37 36 42 32 35 74
58 41 44 77 88 79 70 83 87 86 97 98 98 95 80 70 41 29 83 69 50 82 90 88 78 65 41 44 55 46 40 34 60 79 83 85 68 61 60 51 41 34 32
77 61 53 63 70 64 68 83 84 91 93 96 72 57 60 39 20 78 90 89 70 90 92 88 77 56 25 27 29 26 31 43 80 84 90 91 86 86 83 84 71 69 64
86 81 62 57 71 78 78 77 83 87 88 74 50 36 19 15 22 88 89 88 90 95 91 79 79 32 22 28 37 46 50 73 89 90 77 86 83 80 77 78 89 88 82
84 92 83 75 78 82 80 80 83 88 96 60 50 20 14 14 17 35 76 84 86 93 90 85 43 26 30 42 50 53 63 79 88 89 92 88 58 68 78 86 88 90 94
79 86 80 78 81 84 82 70 85 92 96 80 57 22 16 15 14 16 34 69 80 77 73 38 26 35 38 45 48 50 59 78 82 88 86 85 52 50 67 78 83 92 96
72 79 76 80 88 95 80 80 85 94 97 98 62 27 18 17 16 17 29 44 70 60 35 27 35 41 44 46 46 48 56 85 88 82 82 72 56 87 78 70 55 40 58
75 81 60 57 95 98 83 85 92 95 97 98 70 41 20 20 19 24 33 39 39 29 27 34 41 45 45 43 44 47 55 84 85 78 78 74 79 93 78 72 58 41 44
77 81 73 54 87 92 85 79 71 75 76 98 78 57 29 24 24 22 24 26 25 28 34 39 44 44 42 43 44 45 48 64 62 53 62 61 85 97 76 65 50 28 26
79 79 80 85 72 60 43 41 41 44 51 53 95 80 36 26 26 29 28 30 30 33 34 42 45 45 44 45 46 48 49 57 60 66 71 68 84 92 74 50 37 22 20
84 80 79 85 86 86 80 57 41 31 36 50 93 94 42 36 43 33 30 34 37 35 36 44 47 44 45 48 49 52 53 54 53 70 70 71 57 56 52 43 27 20 21
80 80 76 76 80 81 82 80 54 35 34 54 85 98 62 76 91 80 59 47 36 39 37 42 51 47 49 44 45 53 57 48 52 64 59 62 47 53 45 25 20 20 21
63 80 80 79 79 80 83 81 74 71 74 90 83 76 76 81 84 86 75 52 38 35 41 47 52 56 50 55 54 58 54 45 49 62 65 67 54 41 44 23 19 19 20
82 68 78 82 85 83 85 84 83 83 85 82 84 89 91 87 83 86 86 84 74 54 63 68 75 74 66 58 59 54 52 52 48 58 62 69 55 42 40 24 21 19 20
81 87 77 72 77 80 86 88 86 81 83 86 84 79 80 83 80 79 88 86 90 85 88 87 92 86 77 57 57 54 55 54 54 58 62 57 54 36 28 25 23 21 21
70 75 82 65 60 61 76 79 90 90 87 88 86 90 86 78 80 81 81 85 84 83 87 87 86 85 74 59 52 52 55 56 57 61 54 56 44 35 24 24 24 22 20
54 56 66 72 76 70 59 64 72 87 88 92 93 92 91 87 80 78 82 85 86 86 74 93 88 85 79 65 54 49 53 58 60 56 60 54 47 40 29 22 23 24 20
35 41 44 52 74 83 84 86 71 62 67 78 83 93 95 94 92 87 79 79 77 86 86 91 93 90 80 69 58 55 57 59 64 63 58 54 48 38 30 30 23 23 20
26 30 34 37 41 61 70 85 84 78 71 62 60 79 98 96 89 88 92 85 86 88 92 94 92 89 84 72 62 60 59 60 66 69 62 56 49 42 34 31 27 23 21
31 32 32 32 33 35 37 55 67 78 70 65 59 47 81 95 96 88 67 77 86 89 88 91 90 88 84 77 68 65 58 61 68 74 71 63 50 41 39 33 29 25 21
29 31 34 34 35 36 36 36 45 56 68 68 70 61 46 57 87 100 92 68 67 81 92 93 89 87 90 82 70 66 58 60 71 75 72 69 58 48 40 34 30 26 24
34 31 32 34 34 36 38 39 37 39 49 79 81 62 42 40 65 86 97 100 85 69 84 94 92 91 89 86 75 65 69 71 66 65 69 69 58 51 44 39 33 29 27
44 36 32 29 28 27 30 38 41 40 39 46 80 84 71 67 61 56 73 90 98 100 94 74 85 85 98 91 83 75 72 68 66 63 61 60 57 53 49 43 41 35 31
46 38 35 36 40 39 32 29 29 30 34 40 54 72 86 89 87 73 73 76 94 99 99 100 85 100 82 88 80 77 74 76 64 62 57 55 52 49 48 45 44 48 34
60 50 45 41 40 48 46 42 40 38 34 35 41 54 66 80 85 86 84 83 98 98 98 98 98 99 100 98 94 90 84 81 81 65 62 62 58 56 51 52 49 48 42

GFSSE_850_rhum_051.txt.gz
RH
78 51 56 74 78 70 66 67 72 76 82 82 87 90 86 88 83 65 42 37 52 86 81 83 64 63 56 73 76 71 64 54 47 36 25 25 29 35 44 37 47 89 88
65 51 54 82 79 73 66 72 75 82 89 90 95 93 86 80 62 35 49 28 84 90 61 64 60 35 33 48 57 59 52 48 54 62 57 58 46 45 37 27 32 69 86
50 45 76 94 84 72 68 83 84 96 96 99 99 83 73 57 26 72 50 56 81 89 84 76 71 29 35 52 46 42 47 76 83 85 81 76 76 69 64 45 35 32 57
49 44 60 90 74 71 78 85 91 96 97 92 54 58 49 25 82 92 81 65 88 90 88 76 65 20 24 31 28 31 62 87 92 88 84 80 85 84 85 74 74 72 80
54 46 54 93 70 61 79 84 96 88 89 64 37 27 17 26 86 85 82 76 88 94 87 79 37 21 26 32 38 42 65 82 85 84 91 79 78 77 79 87 84 82 92
69 56 60 62 65 68 74 76 82 84 70 45 23 13 12 17 66 70 75 83 83 86 83 72 25 27 37 45 50 60 75 89 88 88 76 66 54 78 86 91 89 96 93
74 75 71 74 83 76 74 74 75 77 52 61 25 14 13 12 16 41 58 66 72 68 63 29 30 33 39 44 49 63 68 84 88 86 82 75 44 52 82 74 81 86 90
82 88 77 81 93 86 76 72 73 86 83 68 40 17 16 14 13 17 30 42 55 45 28 27 34 37 40 41 45 56 81 87 88 85 71 55 78 80 72 65 50 44 45
79 79 80 78 97 98 78 79 89 89 82 48 47 22 19 17 16 21 29 39 39 28 26 34 39 40 39 39 41 49 75 79 84 74 63 60 87 87 68 61 44 27 28
76 76 68 73 98 95 84 94 88 91 83 42 43 31 20 20 20 24 25 25 24 24 30 35 38 37 37 38 39 40 47 52 55 45 53 54 82 85 63 44 28 17 15
79 78 79 51 72 78 65 68 69 58 54 51 38 30 21 22 23 22 23 23 24 28 32 35 36 36 38 39 42 41 40 39 37 40 54 62 69 67 53 38 24 14 11
80 83 79 66 67 56 52 41 37 36 34 33 34 38 24 22 26 27 27 26 28 29 32 35 36 38 39 41 44 46 44 40 42 39 45 54 54 42 37 29 18 14 14
82 84 80 77 78 72 50 53 49 35 28 30 39 43 55 35 36 35 32 30 32 32 31 32 36 38 40 42 44 49 46 44 42 43 44 47 49 31 24 17 14 15 16
83 82 82 79 80 79 72 70 63 46 35 32 45 62 58 60 55 63 58 59 52 38 35 36 40 47 43 40 39 46 45 48 41 46 51 52 57 50 20 16 13 14 16
77 82 79 78 80 80 78 78 69 64 63 63 63 78 82 76 66 73 75 71 66 52 37 38 45 52 52 50 49 52 48 49 47 45 52 53 54 54 39 22 14 15 17
78 76 81 80 82 83 82 85 82 76 80 77 79 79 86 93 88 83 78 75 75 75 74 58 63 65 68 60 57 53 52 53 52 50 55 53 54 52 43 26 18 16 16
64 64 59 65 80 76 82 84 87 83 83 83 84 83 83 85 90 87 81 76 74 86 83 80 82 87 91 84 66 50 53 54 54 52 54 57 52 52 41 26 20 19 18
62 71 68 64 69 69 66 73 84 85 85 84 87 90 90 85 81 77 79 73 71 80 88 89 86 88 87 84 74 57 51 53 56 57 57 57 55 51 45 37 23 20 19
35 42 57 77 67 74 73 73 72 73 84 87 85 87 86 92 88 84 77 74 73 74 83 93 86 86 92 84 79 72 60 52 54 59 59 59 59 57 49 40 28 24 19
25 34 38 39 39 43 64 76 83 67 65 73 79 82 79 84 91 92 86 82 82 78 77 81 86 84 86 88 87 81 68 57 56 58 62 63 63 62 57 45 35 32 24
24 29 32 30 33 38 46 50 57 73 74 65 61 67 74 77 75 91 85 72 78 89 79 80 82 90 89 90 95 90 73 62 59 58 62 65 66 67 63 53 40 35 31
29 30 32 33 33 34 35 35 36 39 46 60 68 63 63 74 76 67 79 87 88 79 91 88 76 76 83 88 96 92 68 64 64 60 60 66 69 69 67 61 48 40 34
27 27 27 29 30 31 32 34 36 36 38 43 54 64 70 72 70 68 71 76 80 85 85 88 91 77 75 76 80 88 69 66 61 58 59 64 70 70 68 64 55 44 38
30 33 32 30 32 34 35 37 38 39 39 39 42 45 62 75 71 70 68 70 81 73 79 81 85 94 83 77 90 95 91 70 65 65 64 66 69 68 67 63 58 50 44
41 37 34 34 36 34 32 31 29 28 32 35 38 44 54 69 78 76 74 80 75 74 73 75 83 89 94 86 79 89 90 86 75 71 68 65 66 64 64 62 60 57 50
60 54 49 44 42 43 42 40 38 38 37 34 32 32 37 47 64 76 81 76 81 82 87 87 89 89 89 94 100 93 94 90 82 77 72 70 70 64 62 64 74 71 60

GFSSE_850_rhum_054.txt.gz
RH
75 39 80 58 61 64 66 66 72 76 80 79 87 86 77 78 69 40 33 43 77 85 82 66 63 58 67 77 73 68 61 56 46 29 29 30 31 34 29 57 92 86 86
63 42 78 78 65 67 73 78 78 81 82 86 91 99 78 68 40 54 35 88 86 48 57 47 28 29 48 69 66 60 56 54 48 38 50 52 48 33 27 38 71 79 77
64 51 74 81 71 74 73 76 79 81 83 88 81 75 62 34 63 32 59 84 88 70 72 62 23 34 45 52 51 53 57 58 70 71 75 84 75 72 51 34 33 42 43
62 53 84 83 82 69 80 80 88 84 55 41 48 49 30 70 81 55 71 83 89 85 74 60 18 31 41 39 45 57 62 68 84 78 72 79 83 84 75 78 75 85 86
50 53 96 94 83 73 79 80 81 81 65 36 26 19 21 78 84 80 69 90 88 86 72 44 20 21 23 26 38 64 74 81 77 83 84 69 78 81 88 84 82 92 85
49 60 98 93 77 71 75 75 78 74 76 33 13 11 19 73 80 73 70 76 80 68 68 28 27 35 39 41 52 70 75 80 77 72 62 51 73 83 91 90 97 95 87
53 61 90 92 68 69 71 72 76 75 53 34 13 11 11 16 34 45 54 62 52 54 42 26 29 35 39 42 50 59 65 76 73 69 63 47 42 58 79 84 85 81 86
62 65 70 72 76 74 70 74 69 58 44 36 18 14 12 12 17 28 33 45 44 35 25 29 31 35 37 40 44 54 63 66 64 61 56 51 80 69 61 57 52 46 42
75 73 63 84 90 81 73 73 77 80 38 28 21 17 15 14 14 18 25 36 33 24 25 30 34 35 36 38 42 52 62 62 58 52 49 49 82 62 48 38 30 22 20
81 80 80 73 97 96 77 74 91 91 53 26 17 16 17 17 18 25 32 37 30 24 28 31 32 33 34 36 38 41 48 52 49 40 44 42 68 43 34 28 19 14 12
84 80 74 79 85 99 79 90 86 74 42 34 27 22 16 18 18 25 28 28 26 27 33 35 37 37 37 39 39 38 40 40 34 38 45 55 54 55 44 27 16 12 9
80 81 80 63 52 55 68 72 70 55 42 34 31 36 24 20 21 21 22 23 25 29 33 36 39 41 40 42 44 43 42 43 37 35 42 52 56 49 32 25 14 11 10
80 83 81 74 64 56 44 43 41 36 35 32 33 40 44 27 25 24 26 26 28 29 32 35 39 42 44 45 46 48 49 48 46 39 40 41 43 47 33 20 14 12 13
81 83 81 82 78 74 68 53 49 45 35 28 31 39 50 48 38 38 41 47 49 41 32 33 36 48 48 47 49 50 52 52 53 46 44 46 47 46 44 25 15 12 12
83 83 81 82 84 81 76 67 60 54 46 43 40 60 66 62 58 56 58 61 65 62 51 35 37 43 52 47 46 46 46 50 52 50 47 49 51 50 50 41 21 14 13
82 85 83 77 79 81 80 79 73 69 64 69 70 68 72 76 76 77 76 72 70 68 72 73 62 55 57 58 58 54 52 52 50 51 51 51 53 54 53 48 32 17 16
62 71 83 81 76 75 78 80 78 78 78 78 78 81 82 79 78 77 77 79 77 75 75 77 78 73 68 72 72 74 67 55 49 49 50 53 54 57 56 52 39 23 18
63 70 71 76 80 78 77 75 74 75 75 75 77 82 85 85 84 80 77 73 75 77 77 81 80 81 82 80 81 82 80 62 51 49 51 54 57 58 58 56 48 36 22
30 47 60 69 74 76 79 80 83 84 82 80 80 80 80 78 74 80 78 73 77 77 78 78 79 83 88 87 85 89 85 76 64 53 50 54 57 59 59 60 56 46 31
26 32 40 49 62 77 74 81 82 81 81 83 86 87 87 79 78 87 85 79 82 85 83 81 79 83 89 88 89 92 92 86 80 69 55 54 57 59 61 63 62 54 40
23 23 34 37 39 39 41 44 51 66 67 72 70 72 73 73 76 82 77 79 73 84 74 84 87 86 85 87 86 95 96 92 87 81 66 57 56 58 62 64 65 62 49
26 25 27 34 34 34 36 41 49 45 45 47 56 64 70 74 75 79 79 77 80 84 84 86 84 92 92 88 82 91 90 88 86 77 74 63 58 58 62 65 66 66 59
30 30 30 30 32 34 36 37 38 39 40 40 42 43 50 62 68 72 77 81 76 73 77 85 88 87 85 85 82 93 90 86 75 66 61 62 60 60 59 65 71 68 66
30 28 26 26 27 29 32 33 34 34 37 40 41 42 41 41 45 60 71 72 72 75 80 82 79 79 88 89 88 96 95 96 80 70 64 61 60 59 58 61 66 68 70
32 31 31 32 33 33 33 32 32 31 31 32 34 36 39 41 46 55 68 72 76 75 73 71 77 77 88 92 96 90 92 100 100 95 86 79 74 69 66 64 66 65 68
45 42 39 39 37 35 35 35 34 34 36 35 34 33 29 28 35 44 53 72 70 75 71 80 81 82 84 89 91 89 95 98 96 93 96 87 86 79 75 72 70 71 68

GFSSE_850_rhum_057.txt.gz
RH
61 53 74 56 56 63 68 72 72 72 74 79 78 78 75 69 46 33 34 81 90 83 72 66 58 53 80 81 74 68 63 56 45 28 26 29 27 24 57 86 86 88 90
41 59 70 55 55 65 76 77 80 80 80 82 77 60 67 41 49 31 74 83 43 48 40 26 29 54 75 72 68 64 60 54 40 36 46 53 49 30 32 66 78 83 88
43 69 63 57 55 67 85 78 81 84 84 78 74 53 36 45 27 66 88 90 62 66 47 19 26 32 61 64 58 56 55 50 49 63 74 80 81 66 42 34 44 44 41
42 81 77 78 64 77 73 80 90 89 60 52 48 31 28 61 43 73 79 90 76 73 48 17 35 38 48 50 50 46 40 51 59 62 71 76 82 76 80 75 91 88 84
57 60 76 79 71 70 74 91 82 73 52 35 24 16 52 80 59 70 82 89 82 72 42 19 18 27 32 37 33 34 46 56 59 58 61 77 82 84 84 79 91 86 90
63 75 92 85 68 76 81 76 59 45 54 24 14 14 42 78 71 68 82 76 77 51 30 25 29 29 27 31 39 48 53 52 47 47 43 54 76 87 87 89 88 84 88
55 82 95 90 74 82 77 67 63 54 32 19 12 17 61 59 48 53 54 52 46 40 26 27 32 34 36 42 46 54 55 55 48 45 46 34 45 69 76 74 78 74 82
51 82 96 90 70 75 73 67 67 46 25 15 14 18 64 36 41 41 46 43 39 30 25 29 34 35 38 43 47 52 60 60 56 53 49 55 67 50 49 48 46 42 37
57 56 77 83 66 71 70 64 59 43 24 17 14 14 15 25 39 39 41 41 35 26 26 32 34 36 38 40 48 52 62 64 59 47 44 42 70 44 38 32 24 18 13
69 65 57 66 77 73 67 68 65 49 28 26 18 16 15 14 15 24 34 42 39 28 29 36 39 39 40 42 44 57 59 62 56 45 44 49 57 45 39 28 20 14 11
88 85 79 75 79 82 75 66 73 56 46 40 34 21 18 17 17 21 25 31 31 26 32 37 41 41 41 43 44 55 62 58 51 42 45 53 59 64 49 32 18 10 9
87 83 80 85 84 70 68 69 71 70 57 49 46 42 23 20 20 22 24 24 24 24 30 34 41 42 41 42 44 47 58 55 49 48 48 54 58 56 51 32 21 11 9
80 81 81 80 80 58 55 67 73 63 59 49 43 40 39 26 22 23 23 23 25 26 30 32 36 39 40 41 43 44 47 50 50 47 45 51 56 56 55 46 25 14 11
79 78 78 74 66 61 54 54 53 52 44 41 36 35 41 46 30 24 25 26 28 32 35 34 36 39 42 42 43 45 45 48 51 50 46 44 48 56 56 53 44 20 13
80 77 78 79 78 77 74 62 58 56 57 48 36 34 42 50 49 47 45 50 56 61 58 53 40 36 39 47 49 46 46 46 48 51 52 48 48 53 55 56 51 39 18
82 81 79 79 77 76 76 75 71 69 66 60 58 52 60 65 64 63 63 63 63 64 66 68 70 68 60 56 59 56 52 51 51 51 52 52 52 54 58 60 56 50 30
73 81 81 82 79 78 76 77 78 76 76 70 67 70 74 76 75 78 78 77 75 76 77 76 75 78 77 74 72 72 73 75 73 58 52 53 54 54 57 62 62 58 46
67 73 82 81 80 80 79 75 76 78 77 75 70 71 75 80 83 82 78 73 78 83 84 83 81 81 81 84 83 84 81 80 80 78 63 52 52 53 55 58 62 62 57
43 58 72 77 80 77 79 80 83 85 84 82 83 78 75 78 78 79 73 69 76 82 84 83 81 83 82 83 86 89 93 90 89 90 80 70 58 51 53 57 60 63 64
27 30 46 69 77 81 85 87 86 90 90 88 84 81 82 83 84 86 83 82 85 90 86 84 84 84 85 85 89 91 94 95 95 94 88 82 75 65 54 55 59 62 66
24 25 30 37 48 66 84 88 90 89 88 85 85 87 91 89 84 89 89 87 89 88 80 80 89 90 90 90 92 90 87 88 93 90 91 88 81 79 68 57 58 62 67
25 24 24 26 38 41 48 50 52 53 54 59 66 71 77 84 85 84 84 79 79 82 80 81 81 84 84 87 92 93 98 87 75 76 79 76 75 80 78 65 58 60 66
27 27 29 30 33 36 36 35 36 39 47 48 44 42 45 54 59 68 76 82 80 87 84 80 83 83 86 87 89 98 97 87 84 78 73 70 66 64 64 65 63 63 66
30 30 30 31 31 31 32 34 36 37 38 39 39 39 39 39 40 43 44 51 61 66 72 76 79 83 90 91 91 90 97 100 100 96 86 82 74 68 68 68 69 64 65
31 31 30 29 29 30 31 33 35 36 36 36 35 34 35 36 38 40 42 44 50 65 71 74 78 74 73 87 85 97 100 100 100 100 99 91 87 84 85 86 80 71 64
36 37 37 35 35 36 38 40 41 41 40 37 37 36 35 34 33 33 34 40 48 64 77 76 78 87 90 86 91 94 96 100 98 99 98 95 93 94 94 90 85 86 84

GFSSE_850_rhum_060.txt.gz
RH
50 80 61 57 57 60 66 72 76 78 76 73 76 74 67 47 30 38 76 92 80 67 63 58 49 68 87 83 73 68 63 57 41 27 32 27 23 48 78 83 86 97 84
34 68 58 55 54 60 65 69 69 69 75 79 75 69 49 39 32 66 81 44 42 35 24 27 50 60 72 71 68 63 59 51 33 35 47 58 44 29 48 60 68 78 68
34 61 52 54 54 61 69 80 87 94 88 74 50 46 34 29 54 82 87 55 58 37 18 20 26 56 63 60 57 52 48 37 42 58 70 75 66 61 53 76 76 54 52
41 54 50 58 56 76 82 78 89 91 80 59 43 26 49 34 77 90 87 68 68 42 17 29 29 48 56 54 47 38 37 48 49 59 63 63 71 79 79 91 88 86 82
44 53 57 65 81 78 71 84 83 77 50 42 27 36 63 49 70 74 86 79 71 39 19 20 31 38 38 37 32 43 50 50 52 50 66 82 82 87 79 86 84 88 90
47 63 84 80 79 67 75 72 58 41 39 27 21 49 96 57 65 80 80 80 68 38 25 27 24 26 29 34 42 52 57 51 46 42 42 76 88 83 88 81 85 85 90
57 82 88 78 69 70 71 60 41 37 23 23 19 43 84 64 57 73 56 62 48 34 26 34 36 35 37 45 50 51 56 51 46 45 40 39 56 71 71 70 57 58 72
69 90 97 89 69 78 74 66 49 38 22 14 16 38 68 42 42 46 53 38 38 28 28 33 36 38 41 46 54 54 60 61 55 48 45 60 61 48 42 38 33 24 18
74 92 98 92 76 79 79 71 61 44 26 17 13 14 29 46 58 52 52 43 37 27 28 32 36 38 42 46 48 56 63 61 55 50 47 48 56 41 31 29 20 13 10
77 81 89 84 70 65 75 67 63 54 29 23 15 14 14 14 19 33 42 42 35 27 28 34 36 38 39 43 47 52 58 56 54 42 42 52 58 47 48 33 21 12 9
81 76 76 72 65 64 67 66 62 60 41 32 22 17 17 16 16 22 28 34 33 26 27 32 35 35 36 39 43 46 51 53 50 42 42 47 55 56 52 41 25 13 10
81 82 74 68 75 69 72 68 60 60 50 47 40 35 20 20 21 25 30 33 31 26 28 33 37 37 37 38 39 40 44 46 44 44 43 44 49 53 54 52 41 22 12
85 86 82 83 86 80 61 64 62 64 63 54 46 42 41 27 22 23 26 26 25 25 28 32 35 40 41 40 40 41 43 46 48 48 48 47 51 62 56 53 52 42 21
84 81 81 82 86 82 71 67 66 65 58 49 42 39 39 47 37 26 25 26 27 29 32 34 35 38 40 42 43 42 44 46 50 51 51 53 50 53 58 58 57 53 42
80 78 76 76 67 68 68 62 59 53 49 50 46 38 37 42 54 52 38 40 43 54 60 60 60 51 41 42 43 50 50 49 48 50 53 55 51 49 52 56 58 57 53
79 79 79 74 73 74 74 75 66 64 66 66 57 49 41 49 64 62 62 58 60 65 67 70 71 72 73 68 62 59 60 58 56 58 63 58 54 52 51 54 58 59 57
75 76 77 76 76 76 75 76 77 77 77 75 68 67 68 68 71 75 75 75 74 77 79 79 77 76 75 79 77 78 77 78 77 79 79 76 62 54 51 53 56 61 64
78 75 67 72 80 82 81 78 76 77 78 78 76 76 74 73 77 80 77 72 75 78 80 82 82 80 79 82 82 82 86 88 89 86 86 86 81 70 57 52 53 59 63
63 64 66 76 80 84 84 83 84 84 85 86 86 86 84 80 78 76 74 74 79 84 87 89 89 88 84 84 86 88 89 91 92 92 88 89 90 86 77 66 56 56 60
48 50 64 74 75 78 81 85 86 85 86 88 88 86 87 88 88 87 86 86 88 90 90 90 91 89 90 90 91 91 90 91 92 92 85 83 84 90 88 81 74 61 58
25 30 34 48 68 76 75 74 80 82 82 84 86 82 83 84 81 84 89 86 89 93 91 87 89 87 85 84 86 84 83 88 88 84 81 80 82 79 84 85 80 78 63
26 26 25 29 35 42 53 72 83 86 86 84 83 82 83 82 84 90 92 92 89 87 88 83 85 88 88 87 92 90 98 91 87 79 72 72 73 77 78 77 78 75 67
25 27 26 25 26 33 44 50 62 72 71 66 64 68 72 72 66 69 74 79 81 88 86 86 83 90 89 85 87 93 99 86 81 87 92 89 84 79 79 75 71 70 67
29 30 29 30 30 31 33 35 36 37 38 39 43 48 47 44 44 44 44 44 44 46 50 68 74 78 81 82 82 86 92 100 100 97 92 89 92 86 78 82 79 83 80
30 30 31 31 30 30 30 31 32 33 34 36 38 38 38 37 37 37 39 40 41 44 47 52 67 78 85 86 84 93 92 93 90 99 100 93 85 85 86 84 88 95 96
32 32 32 33 32 33 33 34 35 36 38 38 37 37 37 36 36 35 33 32 32 34 40 50 72 85 87 88 91 97 90 100 98 100 100 99 92 89 82 78 78 82 84

GFSSE_850_rhum_063.txt.gz
RH
54 67 74 74 77 73 72 75 78 81 81 78 78 72 56 32 38 75 85 73 61 55 55 44 47 78 83 77 70 64 57 48 28 34 37 26 51 72 75 80 90 81 66
37 77 67 78 63 73 68 74 75 73 74 76 76 64 34 34 67 78 39 43 33 26 22 51 52 66 70 68 59 54 48 33 38 57 66 46 33 37 44 47 52 52 56
37 59 62 59 57 62 72 69 71 79 74 58 48 34 37 44 72 86 52 53 35 19 20 23 48 54 57 54 51 45 36 44 61 72 72 68 70 79 94 86 80 64 78
38 51 56 56 58 61 72 76 74 84 62 45 32 43 34 74 91 84 64 66 39 17 28 25 41 51 54 48 38 38 47 48 57 64 66 74 78 82 85 82 85 81 92
42 52 54 57 70 80 79 76 78 79 53 39 34 47 45 68 76 84 75 69 36 20 20 28 37 39 37 32 41 47 46 46 41 51 72 76 80 79 83 80 87 88 91
53 53 62 62 88 77 76 74 70 55 44 34 48 41 52 62 69 79 77 67 34 24 25 23 25 26 30 39 47 49 45 43 42 37 50 80 79 86 76 61 75 82 79
60 64 72 91 82 64 78 73 53 45 32 29 39 74 54 56 91 82 58 53 34 24 29 31 29 30 36 42 44 48 48 46 46 43 46 45 52 52 48 51 41 35 33
65 78 82 93 78 66 71 67 53 53 22 17 22 77 75 75 90 43 46 40 33 26 30 34 34 35 40 42 43 47 48 50 46 42 40 49 50 35 32 26 21 15 12
75 96 92 82 76 76 73 63 58 53 25 14 13 18 30 62 68 51 45 36 32 27 30 36 37 37 39 42 43 48 50 51 48 44 43 46 42 39 39 31 20 12 10
88 98 98 93 84 82 77 71 64 51 30 16 14 14 15 20 24 33 43 41 35 28 31 34 34 34 35 35 37 41 43 43 42 38 39 42 43 38 44 41 27 15 11
95 98 99 97 87 72 76 68 64 57 32 20 16 16 17 18 19 26 29 34 34 29 30 37 38 36 35 36 37 39 42 45 45 44 42 42 47 48 48 45 43 30 15
92 94 96 93 87 69 73 68 60 57 47 30 24 20 19 20 19 21 26 32 35 31 29 36 37 38 39 38 39 41 42 45 46 46 47 45 45 47 46 48 50 47 32
83 77 78 81 76 80 77 74 64 58 60 46 42 41 40 27 21 21 24 28 29 28 29 34 36 40 42 42 41 42 43 44 46 46 48 48 48 48 47 49 51 52 49
78 84 85 81 89 90 86 74 72 64 66 56 49 44 43 42 39 26 24 26 26 28 32 34 38 38 40 42 46 47 46 46 47 48 49 50 50 51 49 48 50 52 54
80 82 81 83 85 90 86 71 72 66 60 55 50 45 40 40 46 50 42 30 33 35 54 65 64 63 55 48 45 46 49 54 55 52 52 56 55 53 51 50 52 53 56
70 81 82 79 76 72 70 68 64 59 58 61 62 54 46 40 46 61 60 61 57 62 68 71 72 72 72 74 73 73 70 70 70 69 70 75 77 66 55 52 53 55 58
60 80 82 78 77 75 75 76 75 72 72 73 73 68 67 64 62 68 74 77 80 83 82 80 79 78 77 79 75 78 80 83 82 83 84 82 84 82 72 61 55 55 58
67 77 84 82 80 79 78 77 76 77 77 78 78 81 78 75 76 77 80 80 83 84 85 83 83 81 80 80 78 80 85 86 86 86 88 88 88 87 87 80 69 59 58
62 69 80 82 79 81 83 83 84 84 83 84 86 85 84 83 83 82 82 81 84 86 87 87 86 88 86 86 86 87 89 89 88 89 87 87 87 86 87 88 84 75 64
60 63 60 65 69 78 83 88 87 84 87 87 86 86 86 87 87 88 87 85 88 90 90 91 92 93 93 89 87 84 81 79 82 82 83 83 79 77 82 89 90 85 77
28 44 47 51 56 64 66 70 76 74 75 78 69 78 86 86 88 89 84 82 84 88 86 85 90 84 80 82 90 83 80 76 82 86 84 71 72 71 78 88 91 84 77
27 26 25 28 34 41 48 56 64 65 72 79 84 86 88 81 81 82 81 79 84 88 91 90 88 92 88 86 95 96 99 88 80 81 80 83 80 79 76 78 80 79 77
28 27 27 26 26 29 35 42 44 54 64 71 77 79 80 78 76 78 77 74 68 70 75 73 84 93 92 92 97 97 97 82 84 85 87 88 83 84 90 83 80 79 80
27 26 26 28 28 29 31 35 41 48 55 57 59 58 57 58 63 58 53 52 49 48 47 48 55 74 98 97 91 84 86 99 100 94 91 84 77 82 81 80 80 78 81
29 30 31 31 31 32 32 34 35 36 37 37 37 38 39 41 41 40 40 39 39 39 40 42 45 53 65 86 91 88 92 99 98 100 99 97 86 83 76 84 80 81 81
32 33 33 34 33 33 32 32 32 34 34 35 36 37 39 41 40 40 39 38 38 38 37 37 40 45 62 93 99 97 92 99 99 97 97 99 100 85 82 86 88 79 80

GFSSE_850_rhum_066.txt.gz
RH
72 91 74 73 74 75 75 77 82 81 83 80 79 70 44 37 76 82 76 61 50 46 45 67 70 79 76 69 59 50 39 30 43 42 32 47 55 62 66 75 94 89 55
77 92 71 73 77 78 84 78 83 82 76 76 72 49 33 60 81 65 47 34 26 22 42 49 59 66 66 56 46 36 32 47 68 60 44 45 69 88 76 52 48 74 84
79 93 79 81 75 80 81 79 80 76 70 53 46 37 42 73 78 52 56 35 18 21 22 46 50 57 53 45 33 35 41 53 60 63 72 98 92 86 81 82 74 88 88
86 91 92 77 79 79 82 72 78 80 60 38 36 34 64 83 84 63 61 28 19 24 22 42 47 51 41 29 35 37 39 52 61 78 95 94 100 84 80 83 87 91 87
91 92 93 84 87 78 73 80 80 74 46 33 39 57 80 82 83 73 57 28 20 24 28 39 41 35 28 34 35 34 34 34 43 93 97 97 100 85 71 87 85 87 84
90 90 75 87 89 85 80 80 65 44 38 42 48 59 70 81 79 73 56 29 24 22 23 26 27 27 31 35 36 37 38 38 52 86 94 92 90 64 47 52 52 67 67
88 92 84 82 95 78 69 73 49 34 29 42 58 78 68 82 89 76 50 33 25 27 26 25 27 30 35 38 41 42 41 40 65 43 65 86 38 38 29 24 18 15 16
90 99 95 86 95 78 80 63 45 26 19 30 96 93 66 91 81 42 42 37 27 29 30 30 31 34 38 40 43 45 45 41 59 48 50 84 37 32 32 25 17 11 9
93 100 100 94 85 81 84 62 55 32 16 17 40 91 98 99 77 36 41 39 31 27 30 32 33 35 37 39 40 42 42 42 66 45 43 88 40 43 44 36 24 14 10
99 100 100 99 94 93 86 78 69 48 22 14 17 21 28 26 28 34 41 38 33 27 30 32 34 35 36 38 38 40 41 43 62 40 61 62 42 41 46 44 40 28 15
100 99 94 100 100 100 98 82 75 59 37 17 17 19 21 33 23 30 33 37 34 28 29 33 35 36 37 38 38 39 41 46 47 47 58 45 44 42 45 47 47 44 33
100 97 96 97 100 100 98 84 90 69 51 34 21 19 40 22 21 21 27 33 38 33 27 33 36 39 40 41 40 40 42 42 47 50 58 47 46 46 45 46 47 49 48
98 100 97 87 97 99 98 98 98 93 78 50 38 35 31 22 21 22 26 33 35 32 28 31 35 40 43 44 44 44 44 44 47 47 48 46 47 50 51 45 47 50 52
96 86 83 85 86 97 99 94 99 96 84 72 54 48 43 41 36 26 27 27 29 30 32 32 43 41 40 42 44 46 45 47 49 50 51 46 49 52 53 51 49 51 52
96 83 84 85 94 95 94 98 97 97 76 80 56 46 44 41 43 51 45 33 29 31 33 52 64 66 70 66 55 53 56 56 62 64 60 59 66 69 60 54 54 52 53
86 92 96 90 91 88 90 96 96 95 95 70 54 55 49 44 41 47 62 59 52 53 59 66 74 74 77 79 74 75 75 76 75 78 79 78 76 77 76 67 58 59 71
68 73 83 81 95 92 83 87 96 90 78 65 66 62 59 59 54 58 70 75 77 77 77 78 79 79 78 78 75 81 84 82 82 81 80 82 85 83 83 83 76 66 65
63 66 74 83 84 83 88 87 93 89 77 75 74 74 72 71 73 76 78 81 84 83 83 82 83 84 84 83 90 96 96 85 80 81 80 80 81 84 85 84 87 83 71
59 65 72 82 83 87 86 87 86 84 82 79 79 79 80 80 80 81 82 82 84 84 85 87 87 89 94 99 98 94 95 88 78 81 79 81 79 79 82 85 84 90 86
64 64 69 77 81 88 88 88 87 84 83 83 81 81 82 84 85 86 86 86 89 88 88 90 91 96 93 92 98 84 80 82 78 80 78 80 83 82 72 82 86 90 91
56 61 66 66 65 73 79 80 80 75 74 74 78 80 78 81 90 90 87 87 87 84 85 92 94 91 87 94 86 83 92 81 78 76 76 71 76 78 77 79 82 88 91
29 27 34 48 58 64 72 70 71 66 73 78 77 82 78 81 87 90 87 85 88 89 84 85 95 94 92 92 98 100 98 82 81 78 75 77 78 74 75 80 85 80 78
30 28 27 27 31 42 42 43 53 62 63 67 70 81 83 88 87 85 81 75 73 76 73 69 76 88 96 98 91 100 86 74 77 82 85 83 81 81 82 79 79 80 81
29 30 28 27 28 28 31 35 42 51 53 50 63 70 76 76 72 67 61 61 63 60 56 51 48 49 55 93 100 98 100 98 98 89 86 86 88 80 80 79 78 80 84
29 30 28 28 28 30 32 33 33 34 34 36 38 40 40 40 41 41 42 43 43 42 40 39 37 39 43 51 68 98 99 100 99 100 99 84 79 81 81 82 82 82 82
33 30 29 30 32 33 32 32 33 33 33 33 33 33 33 34 35 37 39 39 39 38 36 35 34 34 35 40 52 97 100 98 97 94 92 93 93 93 92 83 82 78 86

GFSSE_850_rhum_069.txt.gz
RH
86 68 62 65 66 68 71 81 84 96 83 78 72 54 35 74 82 62 46 46 44 70 95 80 70 68 64 50 39 28 34 53 38 34 43 62 69 55 61 79 88 82 76
82 67 71 69 72 72 77 81 85 85 83 75 68 35 54 83 63 43 26 21 28 46 79 64 54 56 49 37 29 40 55 61 56 65 92 93 86 80 72 64 88 84 77
80 83 74 72 77 77 80 83 83 78 68 64 43 42 80 69 48 50 24 19 20 35 85 53 47 44 36 29 36 42 49 55 71 82 89 92 85 77 76 81 90 87 76
77 93 95 73 74 77 80 78 74 65 42 38 38 64 83 76 58 48 22 25 23 28 49 42 44 33 28 33 36 38 46 64 78 85 84 92 93 85 84 92 89 85 76
76 86 91 74 76 81 80 69 72 55 35 36 44 75 86 82 68 53 26 22 25 33 42 40 33 28 33 32 33 31 30 54 87 86 96 96 97 55 58 60 71 69 64
75 80 84 82 87 76 70 73 68 40 35 39 66 80 83 80 79 58 29 22 23 27 29 28 27 31 33 32 35 35 34 48 83 90 93 86 37 32 30 27 22 21 20
71 91 88 91 87 78 79 68 47 33 36 45 60 72 80 84 88 61 34 25 25 23 24 26 29 33 35 35 36 37 36 46 79 87 92 79 30 29 24 19 14 11 10
73 95 90 89 95 84 78 69 46 26 31 62 78 68 90 94 95 43 37 27 27 28 27 28 31 33 34 35 38 39 40 46 78 84 94 48 35 36 34 27 20 14 10
77 87 100 91 94 83 89 69 57 24 24 57 96 81 88 96 84 56 41 32 26 28 29 30 30 31 31 33 35 38 40 45 77 71 80 89 41 40 40 41 36 24 15
84 90 96 95 94 80 90 75 69 31 22 28 43 63 64 48 36 35 36 31 26 25 27 29 31 32 33 34 36 37 40 48 82 71 82 47 39 39 43 44 44 42 31
87 92 93 94 99 96 99 77 74 43 22 22 30 36 37 76 35 39 34 35 30 25 26 29 31 33 33 34 35 36 39 70 76 76 77 49 42 41 42 42 43 45 46
94 94 96 94 94 97 99 83 89 59 39 24 23 22 74 83 87 76 30 33 33 30 26 28 32 36 39 59 46 38 45 70 72 69 68 46 44 43 42 42 43 44 46
87 95 88 89 93 95 98 97 92 94 88 77 67 69 69 68 37 23 27 26 30 32 28 27 31 36 84 55 52 54 53 44 60 68 63 46 44 45 47 45 46 46 46
94 87 95 98 98 97 95 95 86 85 88 85 82 78 78 65 52 68 71 68 44 70 61 77 81 84 84 62 65 66 67 50 58 63 61 52 49 54 61 57 52 48 47
91 99 92 86 98 98 95 97 94 90 89 88 92 89 83 81 78 70 68 69 72 73 70 72 80 86 89 89 85 83 80 76 72 71 68 66 67 68 70 70 62 56 52
98 98 98 97 96 98 100 97 88 83 85 87 92 95 89 85 80 74 81 74 66 57 66 75 85 90 92 91 91 91 89 88 86 86 81 77 73 77 77 78 76 70 65
94 98 99 99 98 98 98 99 90 84 85 87 89 93 88 67 60 59 73 92 90 87 82 87 91 93 95 95 94 93 91 90 90 89 92 85 75 71 78 81 81 82 79
90 95 96 99 99 97 95 97 95 87 88 88 90 94 97 94 71 72 74 81 95 98 98 98 97 97 95 92 90 88 88 88 91 92 93 93 89 82 78 74 79 85 85
90 91 68 85 85 88 98 99 98 97 97 94 94 95 97 96 86 77 89 95 97 98 98 97 97 97 96 95 97 94 94 92 93 94 94 95 97 96 83 84 79 78 84
81 90 91 80 81 89 85 92 99 99 100 97 94 93 96 97 97 88 96 98 99 99 99 98 98 99 97 99 96 98 95 95 96 97 96 93 93 96 96 78 78 79 82
50 78 89 97 79 91 96 98 97 96 97 95 99 98 96 97 98 95 89 99 100 98 98 98 100 99 98 92 97 91 86 89 93 80 77 82 93 86 75 72 72 78 84
35 45 64 88 89 79 97 96 97 96 96 95 94 97 96 93 82 80 87 88 95 95 92 98 100 97 98 100 99 99 94 84 77 77 81 82 73 83 81 76 79 84 84
30 30 29 32 49 74 75 98 91 80 65 72 82 77 80 78 85 85 86 88 88 91 99 99 100 100 97 98 96 98 86 79 75 73 74 80 82 81 84 80 83 83 81
33 28 29 28 27 27 37 50 54 62 73 84 81 71 52 63 73 76 77 75 72 68 63 60 56 58 65 84 82 80 87 90 96 84 83 85 79 84 83 83 84 87 84
33 28 29 29 28 28 28 31 38 46 54 56 50 44 45 42 42 42 42 41 41 42 43 43 43 42 41 47 81 93 89 88 86 96 100 80 77 72 86 99 94 96 96
34 36 31 30 29 28 28 32 37 39 36 35 34 35 35 35 34 35 35 36 37 38 39 40 40 40 40 41 41 81 98 98 92 87 83 87 89 77 80 83 98 97 82

GFSSE_850_rhum_072.txt.gz
RH
82 48 56 70 72 70 72 85 87 98 81 77 52 41 77 76 40 46 48 58 95 98 80 70 60 54 35 25 30 51 41 39 80 91 90 80 68 56 66 88 78 74 49
56 47 55 61 66 71 80 87 84 78 69 64 36 68 80 57 37 23 20 32 73 88 88 73 51 39 27 32 43 51 57 76 89 88 81 80 75 71 82 89 82 81 60
48 51 60 67 71 78 83 81 75 59 54 41 52 79 70 44 40 20 18 20 76 90 82 44 40 30 32 34 42 52 68 87 94 90 83 80 75 83 89 87 84 69 67
48 61 68 75 76 78 79 76 61 36 35 39 72 82 65 52 27 20 24 20 49 51 36 36 31 29 31 31 36 51 70 85 89 88 84 65 71 72 62 57 62 72 73
59 69 78 78 74 81 78 66 47 32 34 50 77 85 74 55 34 21 23 25 36 34 33 28 28 28 28 27 28 41 79 92 93 80 80 44 33 33 31 23 19 19 23
80 86 73 74 81 83 70 60 45 32 36 60 77 83 76 57 45 24 22 26 30 27 26 26 30 30 29 31 32 36 50 70 90 93 64 32 26 22 19 16 13 11 10
84 85 74 84 86 74 73 58 32 33 39 65 75 83 85 73 52 30 25 22 23 24 25 28 31 31 31 34 34 34 41 50 63 82 53 35 33 33 28 22 17 13 10
79 83 76 88 81 83 77 48 30 32 45 66 71 80 81 75 41 32 25 25 24 24 26 28 29 29 30 31 33 35 42 64 74 64 58 47 38 38 39 36 31 20 14
82 78 84 85 90 82 80 54 29 28 46 53 68 92 86 79 30 38 29 25 27 27 27 27 28 29 30 32 34 36 40 55 51 56 69 48 39 39 40 40 41 38 25
87 83 88 89 91 80 75 63 33 28 50 70 53 61 76 38 27 28 28 26 24 25 27 28 29 29 31 32 33 34 39 53 57 66 71 54 40 39 38 39 40 43 44
81 84 92 94 95 83 77 63 54 25 33 58 64 53 43 32 30 32 30 29 28 25 26 28 30 30 31 32 33 35 37 48 73 70 62 52 42 40 40 40 40 41 42
82 86 89 90 97 97 90 69 63 35 20 26 35 33 67 79 43 34 32 31 31 30 26 26 30 31 33 34 36 40 46 57 62 57 53 48 43 42 40 42 42 41 41
75 83 90 88 92 95 94 84 71 61 40 40 35 43 71 80 73 48 25 24 26 29 30 27 29 35 37 40 46 41 49 45 44 65 56 49 48 46 50 53 51 46 43
75 82 88 85 85 88 94 91 92 86 89 81 69 67 70 65 53 39 36 36 28 27 34 33 35 60 66 57 60 56 54 53 54 55 56 58 59 60 62 64 62 58 53
90 88 80 83 87 85 93 94 90 85 86 87 85 75 79 74 68 52 58 61 45 46 55 55 51 52 74 81 83 81 74 74 76 73 71 67 67 70 71 72 73 71 66
97 96 92 92 92 92 92 91 84 79 86 87 90 81 84 84 75 71 68 61 58 51 43 46 54 80 83 87 91 91 89 87 86 84 82 75 69 66 72 76 78 78 79
80 84 90 83 79 90 94 94 86 87 84 85 90 91 80 72 77 72 60 83 74 68 66 70 76 79 82 83 81 80 84 84 85 86 89 91 81 71 71 73 78 82 85
81 92 90 87 90 94 92 90 85 87 85 88 89 84 93 82 67 62 58 66 78 91 87 83 85 89 90 92 91 89 90 89 87 87 89 89 92 94 82 80 78 79 84
89 92 91 93 95 94 96 85 89 85 86 81 88 93 97 91 87 76 73 75 80 87 93 96 92 96 97 93 91 91 90 83 86 82 91 93 95 97 97 99 88 81 82
82 92 80 88 82 90 91 89 88 88 89 91 93 90 96 96 95 93 89 94 98 97 97 97 96 94 93 93 95 96 92 91 94 92 88 85 84 89 93 95 86 76 78
67 88 90 85 72 77 84 83 86 90 89 94 88 92 94 96 96 98 95 97 99 98 99 99 99 99 93 100 100 94 90 86 83 84 86 88 81 87 88 74 73 75 80
44 63 74 89 78 71 92 92 89 84 88 88 89 88 93 93 98 98 97 93 100 98 99 98 98 97 98 97 96 94 84 79 74 70 75 90 84 82 80 78 76 83 84
38 40 54 78 91 78 83 95 94 93 98 89 94 92 80 94 98 96 86 83 94 99 99 96 97 98 98 96 98 96 86 79 78 76 76 82 81 82 82 80 83 87 88
36 31 33 39 56 66 61 69 63 65 78 84 81 84 80 66 74 84 84 80 78 82 76 64 58 53 57 81 85 84 93 95 100 93 79 85 85 80 81 82 86 93 90
36 31 28 29 29 29 35 50 46 55 68 67 87 91 82 66 59 51 50 46 43 41 39 40 41 43 44 46 47 53 82 98 96 99 100 76 88 73 82 82 82 85 91
37 35 31 29 30 30 30 29 32 36 38 48 63 63 44 36 34 34 33 33 33 34 34 36 39 42 45 48 48 47 82 97 96 98 91 89 89 87 85 94 70 80 82

GFSSE_850_rhum_075.txt.gz
RH
88 51 65 69 72 74 78 81 82 78 66 40 70 75 56 51 53 79 95 93 94 86 65 43 32 22 29 47 37 73 86 84 80 79 76 64 70 85 85 79 62 45 32
76 51 58 68 68 80 80 80 83 70 52 46 78 82 34 25 21 33 55 90 98 98 64 32 22 28 39 50 61 81 85 89 81 74 77 70 83 87 86 74 60 62 64
63 52 56 60 68 75 85 80 70 62 41 66 81 49 38 23 16 15 33 84 89 57 30 27 25 29 39 55 76 88 83 89 82 63 76 86 91 82 66 65 52 72 78
46 52 57 64 71 77 80 65 43 40 52 81 78 46 38 20 20 19 27 84 55 32 28 26 25 29 38 55 77 90 87 87 84 77 46 33 27 27 25 23 22 25 35
51 56 63 70 73 75 72 51 34 36 60 82 66 49 35 21 20 18 25 27 28 27 24 27 26 28 30 51 76 89 88 76 68 48 31 26 22 19 16 14 12 11 12
64 71 72 73 78 76 61 40 33 42 63 77 74 60 39 24 20 23 27 27 26 24 26 27 27 30 32 36 58 64 68 60 45 40 30 30 30 26 22 18 15 12 10
71 80 78 79 82 70 55 41 35 43 60 73 78 57 42 29 21 20 21 22 23 24 26 28 29 31 33 34 37 44 45 48 42 49 41 38 38 37 35 32 24 18 14
87 76 77 86 82 70 56 32 35 46 62 72 83 73 37 29 23 22 21 22 23 25 27 28 29 31 32 34 35 40 50 47 42 48 49 39 39 39 39 40 38 31 21
91 77 86 89 77 70 47 33 34 42 64 70 79 84 38 30 25 24 24 24 25 25 26 27 28 30 31 32 34 37 43 48 44 48 48 42 39 39 38 38 39 41 39
86 80 88 85 79 67 45 32 30 44 51 60 82 80 37 30 24 24 23 23 24 25 26 27 28 30 31 32 33 35 40 47 49 48 47 48 42 40 39 39 38 39 41
83 81 86 85 81 68 50 36 26 43 49 52 71 79 47 37 30 26 26 25 24 24 26 27 28 30 31 32 32 34 39 46 48 48 48 47 44 40 40 42 41 39 40
79 81 86 94 91 82 65 52 28 23 42 51 54 50 41 44 37 32 30 29 28 27 24 25 28 30 31 32 34 35 40 42 42 46 46 47 46 45 45 52 52 47 43
82 76 84 83 90 82 72 65 51 30 20 26 29 36 59 56 49 39 31 24 25 28 30 26 27 30 35 38 35 37 37 38 42 42 48 52 54 57 58 61 63 60 56
83 72 87 81 88 93 86 79 76 65 48 44 38 47 65 62 63 41 27 34 32 30 30 30 34 37 38 48 56 54 56 57 58 59 59 63 64 68 70 71 70 70 68
70 74 76 80 82 85 88 89 84 87 83 71 67 57 58 66 52 46 42 40 38 35 33 35 35 43 50 66 70 72 73 72 69 72 72 72 70 69 71 75 78 78 76
72 63 51 79 76 85 85 89 93 86 88 88 86 77 68 66 61 58 53 53 50 46 45 42 46 57 73 79 82 87 83 80 80 80 78 75 74 74 78 80 80 84 87
72 72 82 81 80 90 85 88 89 86 84 84 88 89 88 72 68 64 60 58 59 62 58 58 62 73 79 81 82 83 81 85 89 86 86 86 82 84 88 90 91 88 86
70 75 67 84 91 88 84 85 86 80 82 84 86 88 88 80 68 62 54 54 65 76 80 81 81 83 84 87 87 87 88 86 86 82 84 87 94 96 93 93 93 94 92
76 79 84 86 85 82 81 84 82 86 85 83 87 88 83 91 81 68 65 68 76 82 91 97 95 94 94 93 89 88 90 91 89 83 88 89 90 86 78 80 83 94 89
69 81 85 85 83 86 89 86 86 87 86 85 81 83 91 92 91 83 81 84 92 94 95 94 95 92 92 91 89 91 87 89 90 89 90 85 87 89 86 86 95 96 78
65 81 78 84 84 90 92 89 83 76 80 82 84 90 91 92 92 91 92 93 96 97 95 94 95 93 90 92 94 87 88 78 81 73 70 69 90 92 89 89 94 72 73
48 60 65 69 74 76 77 76 78 78 79 80 84 86 87 94 90 93 94 98 99 99 97 97 97 96 97 98 92 93 83 78 73 73 68 66 83 96 88 84 75 77 82
40 48 56 56 66 69 67 73 77 86 90 90 87 90 92 91 90 91 98 96 98 99 98 98 99 99 98 98 97 94 92 85 82 80 78 77 90 92 84 79 80 84 78
36 37 46 64 65 63 76 69 63 59 61 65 59 73 79 78 78 76 72 87 93 100 100 99 92 77 79 65 57 67 86 100 93 89 83 84 84 80 82 85 69 80 72
36 36 36 44 69 68 63 60 62 55 65 70 78 81 84 83 80 65 67 73 74 59 48 44 43 42 43 44 45 45 50 65 81 87 93 82 89 87 90 96 86 82 84
40 35 34 33 37 57 50 53 48 48 52 58 64 48 44 54 65 48 36 34 34 35 36 38 40 41 45 47 48 49 49 53 64 86 89 88 86 84 97 100 95 92 87

GFSSE_850_rhum_078.txt.gz
RH
76 78 68 68 68 70 72 76 77 62 48 74 45 63 94 93 96 95 92 92 75 65 38 24 23 38 32 56 77 81 79 74 68 64 74 85 83 79 63 58 59 60 50
65 75 68 68 68 73 83 78 74 48 66 84 57 32 54 76 94 93 92 95 80 51 21 23 37 42 47 65 71 76 69 68 68 75 86 92 86 72 53 52 74 92 88
57 71 70 68 80 85 76 68 61 42 72 92 57 26 18 27 46 82 96 97 62 25 20 27 39 49 55 72 80 86 66 58 57 69 65 49 40 30 26 31 40 52 85
55 72 72 70 78 82 70 55 49 55 74 76 36 27 16 14 17 36 64 58 23 21 23 29 40 50 57 67 72 80 71 57 40 33 26 22 20 17 15 14 12 13 26
57 71 71 71 75 78 52 38 41 68 90 56 38 21 18 16 14 16 19 19 20 22 25 28 33 44 53 61 67 66 58 61 43 29 27 26 24 21 19 16 14 12 11
59 72 77 77 78 69 40 33 45 70 78 54 38 24 19 18 20 21 21 20 22 24 26 27 28 33 43 50 52 52 43 47 45 35 35 36 36 33 30 24 19 15 13
65 75 80 79 79 67 41 36 49 63 78 66 38 27 19 21 22 22 21 22 24 26 27 29 30 31 32 38 42 44 39 41 42 44 38 38 38 38 38 38 32 23 18
70 80 82 84 78 60 46 39 54 69 80 83 46 32 23 20 21 21 22 23 24 26 28 28 30 31 32 34 37 43 47 41 39 45 40 37 37 37 37 37 39 39 31
80 84 86 90 76 60 37 39 52 80 89 93 76 42 29 24 22 22 23 24 25 26 27 28 28 30 32 34 36 39 44 41 40 42 46 44 40 38 38 37 37 38 40
79 80 91 90 81 64 37 37 48 70 86 97 85 54 31 28 24 24 25 25 25 26 27 28 29 30 32 33 36 38 42 46 41 42 44 46 44 40 39 41 41 39 40
92 82 87 86 85 68 43 34 44 62 63 74 86 52 35 33 28 26 25 25 26 27 28 28 29 30 31 32 33 34 37 43 42 40 45 48 46 44 44 50 53 49 44
95 88 85 84 85 78 54 29 40 45 52 57 71 48 36 32 32 32 30 29 27 26 27 29 30 31 32 35 38 36 38 42 40 41 46 50 52 54 56 60 62 61 58
94 89 83 83 89 86 69 50 28 50 51 50 58 49 37 37 36 36 35 31 31 31 30 26 27 30 35 42 43 44 43 44 46 48 50 54 60 63 68 68 69 69 67
81 96 86 82 86 89 81 72 43 28 30 40 37 41 49 47 44 41 33 28 29 30 34 32 39 40 46 50 60 64 68 65 66 66 64 64 67 69 71 73 74 74 74
56 70 91 85 79 83 83 79 78 68 50 34 32 35 52 52 48 43 39 36 38 36 37 41 42 44 47 60 67 72 77 78 76 73 72 72 73 77 81 81 81 80 81
56 70 59 81 86 76 70 74 82 83 83 83 71 55 50 51 55 55 51 44 44 44 46 45 44 50 64 71 77 81 82 80 80 83 84 84 85 83 86 93 94 93 85
82 69 56 51 81 83 84 84 86 88 86 87 86 85 78 65 63 62 60 53 50 55 61 56 55 60 70 76 80 85 84 83 85 86 84 85 87 90 94 95 87 94 89
79 76 72 80 74 72 87 86 87 90 88 85 81 82 88 90 81 69 63 58 59 71 76 79 80 81 82 86 84 85 88 84 83 81 77 81 82 90 92 81 77 79 84
73 77 74 70 46 42 59 77 82 82 86 79 82 83 84 88 86 79 69 63 62 71 81 88 92 96 94 90 92 88 88 88 94 92 85 85 89 94 93 90 81 82 95
74 75 79 73 64 64 79 82 82 82 78 81 81 84 84 80 84 92 82 78 79 86 88 94 92 91 89 90 89 88 87 83 89 79 79 79 88 95 93 89 86 89 96
70 73 77 84 89 86 86 86 82 86 82 82 82 82 84 84 84 93 86 86 90 88 93 93 90 93 85 87 87 87 85 87 80 69 65 68 69 81 82 87 79 88 83
51 59 64 68 74 81 82 80 82 84 81 79 77 82 82 83 85 85 84 88 94 94 96 96 97 94 92 92 90 92 85 83 71 65 69 71 72 75 80 74 82 87 75
40 42 55 56 57 62 72 79 82 82 82 82 82 84 84 89 88 88 86 86 91 97 98 99 98 97 92 95 97 94 87 87 86 80 82 78 77 81 80 90 77 73 69
40 41 47 52 61 64 66 66 71 74 77 75 76 75 80 84 84 87 89 87 86 75 90 98 96 98 99 98 79 79 85 98 99 84 82 80 85 91 82 89 84 76 85
41 41 45 50 56 61 68 70 69 73 72 68 66 67 64 62 64 68 68 64 67 61 64 68 61 57 51 45 44 43 46 56 72 99 97 70 77 82 85 96 88 90 94
41 41 38 45 47 58 60 66 69 68 71 70 61 60 56 52 52 50 49 47 39 34 33 32 34 35 38 40 42 44 45 52 56 66 92 92 80 78 82 84 87 96 98

GFSSE_850_rhum_081.txt.gz
RH
82 72 75 68 74 73 72 73 57 55 38 70 83 85 85 84 86 89 90 73 68 40 22 21 29 30 67 72 73 64 56 59 73 88 87 84 53 42 50 64 74 74 49
72 71 73 68 69 74 74 70 50 63 58 50 92 96 93 94 91 90 79 72 52 21 20 30 30 49 63 62 60 54 53 61 84 87 70 50 30 29 79 83 74 88 78
72 70 73 68 69 78 80 65 46 72 89 34 59 88 94 94 91 92 82 70 26 19 28 31 38 50 59 59 39 39 44 52 53 37 31 24 21 18 17 16 19 68 96
74 70 75 70 78 86 73 56 50 73 83 39 22 37 56 80 95 90 63 47 18 23 28 33 41 50 50 50 44 40 37 32 29 26 23 22 20 18 16 14 13 14 44
76 73 72 81 85 81 67 54 61 79 74 33 20 14 16 33 50 48 41 19 20 24 26 31 36 42 44 39 38 37 36 32 30 32 34 32 30 28 24 20 16 14 14
82 80 77 79 80 74 54 52 66 80 44 31 18 17 14 14 16 18 18 20 21 23 25 28 33 40 41 36 37 38 38 38 37 36 36 36 36 37 36 32 25 20 16
88 83 78 78 81 67 44 50 84 82 50 33 21 18 17 20 19 20 21 23 24 25 26 28 32 36 36 36 36 38 40 42 46 40 36 36 36 36 36 38 38 33 24
86 81 82 83 81 61 41 54 84 79 75 43 25 21 22 21 22 21 23 25 26 27 28 30 31 33 34 35 37 41 42 40 43 44 44 40 38 37 37 37 36 38 38
79 82 84 85 80 58 43 54 82 85 82 66 43 23 22 23 23 23 24 26 27 28 29 30 31 33 34 36 39 40 42 43 46 47 45 44 41 39 40 41 40 38 38
76 80 88 89 76 61 42 50 84 91 90 82 68 37 24 23 23 24 24 26 28 29 30 31 33 34 35 36 38 40 41 45 47 47 46 45 44 44 45 50 52 48 44
85 80 87 90 79 64 40 44 75 92 98 98 85 50 31 26 26 26 26 27 28 30 32 32 33 34 34 35 36 37 41 44 45 44 47 49 50 54 55 59 60 59 57
90 82 79 81 78 68 46 43 64 80 93 94 82 49 39 34 30 28 27 28 28 29 30 32 34 34 36 39 41 40 42 46 44 44 49 55 57 61 64 66 66 66 66
81 92 91 90 73 75 58 37 52 70 69 73 85 59 40 36 35 37 36 34 32 29 28 28 30 32 35 43 45 47 48 49 52 57 55 58 64 67 67 68 71 71 71
51 67 83 94 88 74 74 59 42 58 58 63 74 71 47 44 43 41 43 36 32 33 35 32 34 40 46 49 59 63 69 71 71 69 69 69 72 75 79 80 78 76 75
47 36 41 65 80 82 67 68 58 36 58 59 56 45 46 55 59 51 42 34 42 37 41 40 43 43 46 54 66 70 76 75 74 73 74 78 82 84 86 90 92 91 83
49 41 39 51 79 83 81 62 61 55 38 35 35 33 36 46 53 54 50 47 50 48 46 50 50 50 57 70 79 82 84 84 82 85 84 85 86 87 90 94 95 87 85
50 45 43 53 48 63 88 83 77 76 81 82 74 69 62 57 53 59 60 54 51 53 54 56 56 56 62 72 78 84 86 86 88 88 86 86 79 81 84 87 83 82 76
48 51 51 54 64 60 55 85 76 85 81 85 84 85 84 82 85 78 70 62 59 58 65 69 75 77 82 84 87 88 90 86 85 88 90 87 84 82 81 92 86 82 79
55 57 63 60 62 51 55 52 47 49 81 86 84 86 84 82 86 89 83 71 67 63 73 79 87 91 92 89 90 87 90 89 90 93 92 86 86 93 92 93 90 84 84
74 79 75 73 65 59 51 64 46 46 72 91 84 78 82 81 85 84 89 81 73 68 74 82 83 90 87 88 87 86 86 87 89 83 75 72 71 73 87 93 90 88 90
73 77 80 82 78 66 64 62 49 58 86 84 80 77 79 82 83 80 90 88 83 82 83 85 86 87 85 82 86 81 80 83 84 73 58 60 63 71 75 79 75 78 85
69 70 74 73 76 79 67 59 62 77 81 83 79 79 78 80 80 81 85 84 82 86 88 90 93 91 86 84 86 84 80 76 76 65 64 62 65 73 77 83 75 83 88
60 64 68 67 68 70 75 78 79 80 80 82 82 85 81 83 81 85 84 86 87 87 93 94 94 97 89 91 92 92 87 82 84 87 82 77 78 80 77 87 90 95 82
40 48 56 63 65 64 67 73 74 73 71 73 77 79 87 84 83 78 82 80 80 75 69 76 67 71 78 95 90 93 87 90 92 86 77 79 79 80 87 82 87 91 88
35 39 46 50 53 58 63 65 69 71 68 70 78 74 77 86 86 84 73 63 61 64 60 56 59 69 69 62 50 42 42 46 53 79 85 46 60 70 84 86 87 87 83
36 39 42 49 50 52 55 59 68 65 71 73 70 62 55 67 72 70 59 53 49 57 59 62 61 46 36 36 38 40 43 50 58 64 71 73 66 74 82 78 81 86 77

GFSSE_850_rhum_084.txt.gz
RH
81 75 78 76 66 70 69 62 43 37 75 73 63 58 62 69 77 90 84 69 48 21 17 24 41 60 73 59 52 53 66 77 74 61 50 36 49 88 83 87 87 60 52
72 74 77 69 68 71 72 61 52 40 73 74 72 74 77 86 92 83 72 61 27 17 24 25 45 50 55 52 49 54 57 54 46 33 25 20 21 29 37 58 92 81 74
72 74 77 69 71 72 71 55 61 46 84 86 86 88 88 88 89 75 71 43 16 21 25 30 35 39 40 41 41 40 33 26 24 23 22 20 18 17 15 15 30 94 99
73 74 74 72 72 79 71 49 75 78 50 91 94 95 92 91 91 77 64 25 18 24 27 30 32 33 35 34 33 30 28 28 29 29 28 28 26 22 19 16 15 17 42
77 76 74 71 80 84 61 46 80 85 43 32 75 92 94 94 84 67 49 17 21 26 29 33 32 33 35 36 35 33 31 32 35 37 37 37 37 35 30 25 21 18 18
79 77 73 77 86 76 56 49 77 81 44 31 22 38 65 75 62 46 21 20 23 26 29 32 33 37 38 41 41 39 39 38 37 36 36 36 35 36 36 36 33 27 22
80 78 82 87 83 67 51 57 80 66 38 24 19 17 19 27 20 20 20 22 24 27 30 36 40 41 40 43 42 43 42 45 41 38 37 36 36 36 36 36 37 37 33
81 81 85 84 76 54 47 66 89 66 39 24 20 18 39 20 21 22 24 25 26 29 33 38 41 43 42 44 46 45 42 43 45 44 42 39 38 39 40 40 39 39 39
84 80 85 87 73 46 47 84 87 63 48 28 24 24 30 23 23 25 26 27 28 30 32 34 37 38 40 40 44 44 42 43 46 47 46 44 43 43 46 51 50 46 43
82 85 87 86 70 45 44 82 90 76 72 52 27 27 27 25 26 27 28 29 30 31 32 34 35 36 39 40 40 44 46 46 45 44 46 46 49 53 54 58 59 57 54
84 85 84 80 71 51 42 74 86 85 87 87 58 31 26 26 26 26 28 30 31 32 33 34 35 36 36 36 37 36 39 44 45 44 48 52 54 58 61 62 62 62 61
88 86 88 83 69 50 40 60 88 94 90 98 85 48 31 28 28 28 29 30 31 32 33 34 35 35 36 38 40 41 43 44 45 47 50 56 60 61 63 66 66 67 67
90 87 89 86 77 57 36 42 70 93 99 98 88 62 45 36 30 30 29 29 29 30 31 32 34 36 38 42 45 46 48 52 57 62 61 62 67 69 71 70 73 76 75
78 82 76 82 79 78 59 35 47 75 83 88 92 79 54 43 39 38 38 38 37 36 35 32 31 34 44 52 56 64 72 74 73 72 72 74 78 80 83 85 85 88 84
52 62 58 55 59 77 81 70 40 49 60 67 70 84 71 50 47 48 49 44 36 34 35 40 40 47 51 55 65 69 76 79 80 77 78 84 88 90 91 92 93 91 82
50 56 61 61 45 45 76 83 73 53 35 63 65 64 61 53 63 63 54 44 41 46 45 45 48 47 50 58 70 75 79 80 79 81 85 87 86 86 86 85 90 89 81
60 75 64 53 35 34 46 83 81 71 66 41 35 40 40 42 61 62 60 56 52 55 56 55 54 52 55 63 74 81 84 88 88 88 86 87 88 80 79 77 74 89 78
73 67 62 45 33 40 38 53 79 76 70 73 79 72 73 70 68 62 66 65 66 60 59 62 67 67 70 81 86 90 90 90 89 89 90 91 90 81 77 81 80 80 80
63 55 52 50 41 47 48 50 78 63 52 54 59 75 83 84 86 90 90 84 80 73 68 74 82 86 92 88 84 84 88 89 86 88 86 86 82 78 79 78 89 94 91
60 53 46 48 47 50 45 51 51 47 44 53 57 81 83 84 83 81 84 88 92 84 76 77 85 90 87 84 85 84 79 80 79 77 74 74 66 62 66 70 79 91 93
66 56 55 51 52 60 55 61 61 51 51 53 63 81 81 77 77 78 81 88 97 91 79 80 91 90 86 85 84 78 78 77 77 72 64 54 50 50 60 66 74 82 68
73 72 78 70 74 65 54 68 60 58 59 53 58 71 77 80 74 79 84 82 86 87 88 90 85 88 90 88 84 88 84 73 72 72 67 70 59 70 76 77 79 81 79
68 70 72 74 78 66 61 72 77 73 75 71 68 94 90 87 82 81 81 84 82 82 84 84 83 81 85 88 88 86 84 78 84 81 80 76 71 75 69 63 68 78 86
58 70 72 74 75 76 77 78 80 76 80 80 69 66 68 95 87 88 94 89 91 95 91 83 67 68 75 75 76 89 96 99 99 80 53 61 75 77 77 73 77 82 87
40 42 51 64 68 71 70 72 72 72 71 73 76 74 72 60 69 82 77 99 95 87 79 67 64 69 71 68 60 64 59 51 56 66 60 44 54 67 77 79 81 89 91
36 35 39 46 54 52 57 62 66 69 70 70 70 72 70 75 84 74 68 68 72 71 73 71 67 64 65 55 39 41 44 49 54 63 74 68 58 60 66 76 88 84 83

GFSSE_850_rhum_087.txt.gz
RH
80 77 80 80 68 64 62 54 39 48 56 44 56 61 67 75 75 78 75 62 28 16 32 85 99 69 44 46 59 77 63 40 32 24 26 81 74 64 81 76 62 61 52
77 75 84 74 66 64 60 44 41 69 64 60 49 66 69 72 80 82 68 45 16 22 51 87 66 41 40 49 56 45 38 28 25 22 20 20 21 22 32 67 90 86 78
74 79 84 69 67 69 64 43 39 68 74 68 75 78 72 89 86 73 60 21 19 24 61 49 42 35 38 42 40 30 26 26 24 24 24 21 19 17 16 19 28 80 87
74 82 81 71 70 74 62 48 43 69 80 84 77 77 87 86 77 71 40 17 24 30 36 34 30 32 33 33 31 29 30 32 33 33 34 33 29 25 22 19 19 25 58
79 82 75 76 72 74 53 65 54 75 80 91 95 92 91 89 76 63 24 22 26 31 34 35 38 38 38 38 34 33 35 36 36 36 36 36 36 36 33 29 26 22 21
78 79 78 73 78 67 42 78 81 38 79 94 98 96 95 92 74 56 20 26 30 35 38 36 42 43 45 44 42 41 40 37 36 35 35 35 35 36 36 36 34 31 27
80 79 79 79 86 61 42 75 83 46 27 51 78 95 96 83 66 44 22 27 32 36 39 44 44 45 45 45 45 45 48 44 42 38 36 36 37 38 38 38 37 36 35
80 81 83 90 81 54 44 76 82 47 27 19 23 44 60 51 28 21 24 28 32 35 40 42 42 41 40 42 44 43 43 46 45 42 40 39 40 43 47 46 44 41 40
82 82 92 94 73 44 48 76 75 46 27 21 18 28 21 24 21 23 25 27 31 35 38 40 40 40 41 42 44 43 44 46 46 45 44 44 46 49 55 55 53 50 48
84 89 91 87 63 40 56 90 77 53 36 26 28 94 24 23 24 26 28 28 30 32 34 36 36 37 38 40 43 44 46 48 47 47 48 49 53 55 57 59 60 59 58
92 90 94 83 58 42 74 88 82 70 53 34 30 32 26 25 28 28 29 30 32 32 35 35 37 37 38 37 39 42 45 48 48 48 51 54 58 60 63 64 65 65 65
94 94 90 78 54 41 75 86 83 82 73 70 38 31 32 30 30 31 32 34 34 34 34 34 35 35 36 37 39 41 43 46 47 52 52 56 61 63 65 68 69 71 72
92 95 88 76 59 41 55 82 83 88 81 75 76 42 30 29 30 30 31 31 32 32 33 34 34 35 36 38 42 43 46 51 58 61 63 64 66 70 73 77 82 83 81
88 85 92 79 60 41 42 69 88 89 83 87 84 58 42 35 32 32 32 33 32 32 32 32 33 34 35 40 49 56 61 68 70 70 71 71 76 82 86 89 90 89 83
77 76 75 80 65 47 40 43 65 85 85 84 86 75 55 46 42 41 42 44 44 39 40 40 37 37 46 50 51 65 71 75 75 74 73 79 85 86 86 86 88 86 84
77 69 72 69 74 68 36 42 40 43 64 71 68 74 73 64 52 53 56 54 44 43 44 44 46 51 52 52 60 70 76 78 77 77 84 86 88 84 80 79 77 74 82
75 70 61 56 66 66 68 40 39 48 35 39 50 54 54 58 51 62 66 64 58 55 58 54 55 57 55 56 66 76 80 84 87 86 86 86 86 85 80 77 75 76 79
70 64 53 50 48 60 57 64 43 52 54 54 43 40 35 37 37 52 57 59 66 66 62 61 63 63 63 67 81 88 89 88 87 86 88 86 86 81 79 83 75 76 78
65 64 57 73 70 71 61 61 64 60 54 54 66 58 69 74 76 78 73 76 83 80 73 70 72 77 84 90 86 85 84 87 84 82 80 78 77 76 68 64 70 73 76
56 58 70 62 62 66 58 51 50 56 61 62 66 66 62 72 81 86 82 82 87 91 86 79 77 89 93 86 84 85 82 84 83 81 79 74 68 55 47 50 59 66 81
58 56 63 60 62 63 57 48 59 54 52 58 75 69 66 72 86 86 78 77 80 85 90 85 82 91 89 85 82 81 84 81 72 67 72 62 52 54 48 63 67 71 76
73 66 69 60 56 61 45 49 40 44 50 68 76 65 66 70 79 82 87 86 82 84 85 89 86 88 84 84 86 85 84 80 64 68 71 74 66 58 62 72 69 78 84
76 72 74 65 62 56 53 58 54 58 63 58 60 63 64 70 77 92 84 88 91 84 88 98 98 93 88 86 86 90 86 82 86 80 77 77 67 58 60 54 54 64 73
73 65 72 70 67 70 69 71 67 69 63 59 67 60 62 68 65 73 74 90 86 94 100 100 99 87 73 73 74 77 77 86 97 87 59 53 55 56 58 54 62 53 78
70 65 70 76 76 76 75 78 78 78 70 74 72 71 79 82 82 83 72 76 87 84 73 74 85 84 79 80 69 65 81 61 44 55 70 44 49 56 61 62 70 72 76
40 41 44 49 65 69 72 74 75 75 74 73 72 73 76 76 74 69 74 82 87 82 70 69 72 76 73 74 83 77 43 40 44 55 69 61 58 52 59 62 67 72 87

GFSSE_850_rhum_090.txt.gz
RH
89 99 87 78 74 62 64 61 48 33 34 39 59 65 63 81 83 74 74 47 25 60 70 87 74 90 58 78 75 53 38 26 27 50 54 35 47 74 53 62 91 75 60
89 99 85 82 71 64 62 53 38 38 32 47 56 59 71 80 80 83 66 24 18 52 88 89 66 47 58 77 42 31 26 23 22 21 22 20 22 26 37 72 86 62 60
90 100 82 83 65 62 57 41 52 56 68 53 57 59 75 80 80 74 45 18 33 91 99 73 43 48 55 42 28 26 25 26 26 24 30 56 19 19 22 26 50 78 63
92 100 97 78 64 62 52 40 66 69 72 57 63 72 78 87 80 66 21 24 77 96 91 47 40 41 37 30 29 31 33 34 35 35 69 68 30 26 23 22 24 40 83
96 100 100 72 68 65 46 37 66 77 74 79 74 76 91 84 71 39 20 31 88 87 53 37 38 35 34 32 33 36 36 36 36 39 36 42 47 34 32 29 26 25 29
99 99 88 73 72 66 44 39 66 86 84 85 87 90 89 74 68 24 24 31 82 64 38 38 38 40 38 38 38 37 36 35 35 36 40 37 38 36 36 35 33 30 27
98 99 81 76 73 61 47 56 69 82 90 93 94 96 94 75 55 19 27 31 40 40 43 44 43 44 45 44 44 45 41 41 45 38 41 60 40 41 40 39 38 37 36
98 100 97 78 77 49 55 84 42 70 94 97 96 97 98 84 57 21 28 33 40 42 44 45 45 43 44 45 45 44 45 45 56 46 47 62 44 51 52 48 45 44 42
98 99 95 84 79 47 59 89 60 33 39 83 98 97 98 72 37 23 31 36 39 42 44 44 41 40 40 43 44 44 45 46 77 49 53 78 50 54 57 57 54 53 51
100 99 94 97 85 55 66 91 60 34 24 25 43 70 59 36 24 26 32 37 37 39 40 39 37 36 37 38 41 41 43 45 60 47 53 61 56 57 59 61 61 62 61
97 99 99 100 96 88 95 91 62 40 27 24 38 44 27 31 28 29 36 34 37 38 37 36 35 36 36 37 37 38 40 44 45 47 62 54 56 59 62 64 64 66 66
97 100 98 100 91 88 89 86 80 61 52 91 98 70 89 82 82 79 31 32 34 36 37 37 36 37 38 37 36 39 44 44 44 51 52 54 58 60 64 68 71 74 74
98 97 98 98 88 92 92 93 95 89 95 86 86 94 92 90 38 36 36 39 39 39 41 40 39 39 39 41 42 49 44 48 68 60 60 58 60 65 70 76 83 85 81
98 87 94 86 79 92 96 87 93 80 95 94 56 42 39 37 36 35 37 37 37 36 38 37 41 40 40 41 56 71 61 68 80 71 74 63 67 75 83 86 87 84 80
89 88 92 74 50 52 89 98 95 90 90 91 72 40 31 30 31 32 34 34 35 35 35 36 34 36 37 48 57 74 89 89 88 89 86 73 79 83 84 84 84 81 76
56 98 83 80 52 42 53 73 74 78 89 84 78 50 45 43 39 39 39 44 48 47 42 42 44 45 63 62 80 77 87 90 91 92 91 92 84 85 81 80 78 80 79
68 88 97 84 59 44 46 61 71 55 62 65 67 70 64 57 50 48 53 58 57 48 50 53 52 50 52 54 61 84 90 90 92 89 91 90 89 82 78 84 79 72 79
80 92 83 81 79 62 46 43 58 50 53 35 44 50 57 57 54 44 58 58 66 61 59 60 60 60 61 65 75 84 92 90 87 83 81 84 85 89 88 71 65 71 77
85 94 99 76 61 79 74 69 65 56 66 75 37 47 52 54 54 48 49 55 60 70 72 66 64 64 82 80 89 91 87 85 83 80 81 81 89 78 82 68 48 58 64
84 82 83 65 63 73 77 79 78 73 68 79 75 64 63 67 80 82 83 82 84 86 86 83 74 69 83 91 94 90 81 84 84 82 81 86 89 69 58 48 54 66 61
90 84 80 81 74 70 71 59 78 65 67 73 73 74 68 62 66 80 80 80 85 84 82 85 88 82 92 86 85 85 84 81 82 81 86 81 74 60 56 49 66 70 89
89 95 86 77 65 50 56 54 54 59 68 76 79 84 69 62 64 70 74 72 77 89 89 95 99 98 81 88 95 95 77 71 74 64 75 74 66 54 44 42 57 48 63
87 83 79 73 77 71 70 72 74 84 69 73 62 76 71 72 78 75 64 70 77 88 98 99 100 97 98 92 90 91 80 71 77 76 84 85 65 67 50 48 50 51 60
78 77 79 87 87 84 78 72 73 80 78 79 75 70 65 63 63 71 68 73 65 61 86 97 85 98 100 93 79 81 82 78 93 78 69 72 64 60 64 53 50 46 51
85 89 96 82 73 76 79 78 81 76 62 64 72 76 69 76 63 66 75 81 68 78 83 75 81 85 85 78 77 82 74 71 68 82 71 57 54 66 49 46 51 55 59
79 66 73 85 87 85 64 69 88 80 72 71 83 80 78 84 82 78 79 82 76 87 87 88 83 76 66 75 73 68 69 78 74 46 53 65 72 63 53 54 53 56 63

GFSSE_850_rhum_093.txt.gz
RH
76 85 85 80 67 56 55 55 52 48 55 63 74 71 64 80 80 79 62 58 78 85 83 76 80 75 86 71 50 25 23 41 58 32 40 37 37 39 54 84 90 54 54
80 88 84 81 70 60 57 54 49 45 45 56 70 66 60 85 78 79 52 40 74 75 90 94 73 77 72 38 26 24 23 23 25 25 33 24 24 37 61 76 65 55 57
80 95 90 79 72 62 57 51 40 32 38 49 58 53 70 87 79 78 33 30 58 87 92 81 58 80 54 31 25 25 25 24 30 48 67 39 22 25 35 57 86 59 54
81 96 99 82 73 61 57 46 37 44 45 56 56 54 78 80 81 63 22 60 88 98 81 82 68 67 29 28 29 31 33 35 43 73 70 72 27 24 26 30 49 78 87
81 89 99 85 68 61 55 38 56 62 59 61 66 72 81 79 76 37 25 88 95 96 42 42 42 32 31 33 36 36 36 36 53 79 85 76 38 32 30 29 29 39 54
88 87 96 84 69 62 50 40 68 63 56 66 69 78 84 87 68 21 45 98 99 43 37 37 34 33 34 35 36 35 36 40 71 82 71 44 35 36 35 34 31 29 29
88 96 93 80 74 64 45 41 72 71 74 70 78 86 94 86 45 28 86 100 88 32 34 34 36 38 39 39 41 39 39 48 77 83 88 42 40 41 40 40 39 37 36
92 92 96 78 77 67 45 46 73 79 76 84 90 96 96 76 34 33 74 97 51 38 40 40 41 41 40 40 39 40 40 44 78 82 85 41 45 48 47 46 45 44 43
93 90 100 74 85 68 64 52 74 83 91 91 98 96 99 67 28 30 37 79 38 41 44 44 42 42 42 42 40 40 40 47 78 72 82 60 47 50 53 54 53 52 50
98 90 96 91 90 66 80 75 52 82 99 100 100 100 100 78 34 33 36 53 44 48 50 47 44 42 42 42 42 40 40 45 81 59 84 52 52 52 54 55 56 58 59
84 99 100 99 99 91 85 97 64 40 54 99 99 100 99 69 35 34 42 42 48 51 52 48 42 40 40 39 40 40 43 71 70 74 81 53 53 55 57 59 61 64 65
84 85 87 97 94 85 93 97 66 42 32 50 86 91 81 49 77 88 43 44 45 48 47 41 38 39 40 51 38 38 47 67 68 71 75 54 54 57 60 66 69 72 72
72 73 76 100 93 78 89 97 88 77 81 78 86 85 81 87 82 91 38 39 42 40 39 40 39 39 59 68 69 69 67 69 67 72 66 57 58 61 63 70 78 79 78
58 64 51 90 94 76 82 89 81 78 76 82 87 83 81 86 92 91 51 43 49 42 78 62 77 73 52 56 71 72 76 77 80 79 78 65 63 67 78 83 85 84 78
57 55 54 99 92 89 76 88 86 77 79 78 83 85 87 88 85 87 86 78 70 73 72 72 70 69 67 67 72 79 80 81 81 82 85 82 72 79 84 84 81 79 80
54 59 66 98 87 96 89 87 91 92 81 89 84 78 79 75 61 55 56 52 54 50 64 72 70 66 65 76 77 75 76 79 81 83 84 86 85 83 85 84 83 80 74
75 75 91 96 89 92 89 90 90 87 85 90 87 54 58 48 40 34 41 46 72 79 73 77 74 75 77 78 77 75 79 80 80 79 80 81 83 84 81 76 75 79 74
62 58 60 81 80 50 69 97 93 91 93 91 81 60 42 43 43 45 68 75 90 87 72 86 79 86 82 78 73 72 80 82 79 77 74 75 78 80 84 88 82 54 53
98 86 72 83 89 47 70 95 99 97 94 95 99 92 82 64 56 46 46 90 93 83 74 84 86 85 80 80 75 76 79 77 79 74 72 73 77 84 92 73 58 41 47
96 86 82 73 89 58 43 68 70 68 92 86 91 93 88 77 66 52 79 90 91 82 88 92 85 84 84 76 78 80 82 79 78 75 73 76 80 84 61 59 41 72 70
99 87 72 90 89 80 74 63 65 67 70 75 91 92 72 80 76 79 80 81 93 98 96 92 90 90 87 88 85 85 77 75 75 74 77 80 77 75 69 65 46 56 60
99 88 76 82 82 82 81 79 75 84 82 87 70 70 75 63 63 65 72 75 75 78 77 79 92 93 91 90 86 91 88 75 70 69 78 80 80 68 70 72 47 53 42
100 94 86 64 72 82 86 78 77 82 73 83 82 81 81 70 73 75 70 64 67 76 76 72 88 92 99 93 91 89 85 75 75 71 77 83 60 66 72 55 52 49 38
99 100 96 72 71 82 98 93 90 78 78 79 78 81 81 81 76 75 67 63 71 72 73 73 73 75 88 99 91 86 82 75 78 78 78 79 66 55 58 62 63 58 42
96 97 98 98 86 68 89 91 80 85 80 86 86 90 80 63 83 84 80 84 80 80 64 75 71 64 74 89 96 85 80 83 81 79 92 78 54 50 47 52 52 50 65
78 87 89 96 87 81 81 80 93 84 93 98 91 82 81 94 80 82 71 80 74 80 62 66 77 78 90 94 93 82 77 74 65 64 81 60 44 43 53 59 61 60 55

GFSSE_850_rhum_096.txt.gz
RH
77 67 57 56 50 44 42 42 55 65 69 69 69 63 64 74 80 78 54 63 84 81 88 72 86 89 82 29 22 35 50 36 42 43 38 37 47 82 82 68 50 50 57
69 72 60 63 59 51 50 48 46 51 62 67 67 65 61 80 80 70 60 73 90 84 82 66 83 79 30 23 22 24 28 25 32 36 29 36 48 74 69 59 50 55 75
73 74 74 67 65 58 54 54 50 48 47 58 65 66 60 82 76 64 48 78 76 69 59 63 80 35 26 25 25 24 27 48 60 67 44 26 28 46 56 68 84 68 75
76 79 78 77 71 63 57 52 47 42 42 48 56 59 63 81 77 59 33 62 85 69 48 70 62 33 26 27 29 31 41 66 73 73 68 30 26 30 34 56 69 77 65
76 81 88 84 75 65 57 49 37 33 47 48 58 53 75 80 80 41 40 77 85 90 75 54 30 27 30 33 34 35 41 53 62 68 54 35 31 30 30 29 31 37 40
78 78 82 85 80 64 57 46 38 47 58 60 60 58 83 77 71 26 77 92 86 68 44 34 29 31 34 34 34 34 41 58 57 55 43 36 35 35 34 33 32 31 30
90 80 79 82 80 63 57 42 57 57 62 62 64 70 84 94 55 35 89 100 72 48 39 34 32 34 35 36 35 37 44 54 63 72 41 40 40 40 39 38 38 37 36
96 79 80 87 75 64 55 53 74 62 55 65 75 86 89 96 34 91 99 97 45 56 40 37 39 40 40 41 40 41 44 61 68 58 44 43 45 44 44 43 43 43 43
94 88 88 88 78 69 55 41 73 69 66 69 80 91 97 86 47 94 99 95 42 40 44 43 44 44 42 40 40 41 47 73 78 75 66 48 47 47 48 48 49 50 51
89 95 97 94 81 77 56 46 71 83 79 86 90 100 96 68 43 78 100 93 56 47 45 44 45 44 43 41 40 41 45 68 60 61 64 52 51 50 50 50 51 54 57
93 98 100 100 93 84 59 57 77 90 93 96 99 100 94 59 43 44 96 97 49 48 46 45 43 42 41 41 41 40 44 64 71 78 79 60 52 51 51 53 58 65 68
62 73 91 89 93 97 78 84 62 89 98 98 99 100 98 67 34 40 78 89 52 51 49 46 42 39 39 39 38 38 52 64 68 69 72 61 54 55 57 63 68 73 76
56 72 79 84 86 100 95 90 72 49 72 100 100 99 99 71 42 42 50 55 46 49 47 42 39 39 43 59 64 54 64 69 67 71 66 62 58 60 64 70 78 79 76
49 46 46 62 55 85 100 84 88 55 39 76 75 96 81 61 63 52 42 39 43 45 38 40 43 47 48 53 61 67 73 65 73 79 78 78 66 66 73 79 78 76 73
42 46 40 45 68 94 66 98 88 51 41 72 64 63 86 77 75 58 42 38 38 39 45 58 67 73 63 56 63 72 77 81 82 82 84 84 82 72 75 80 81 76 74
56 50 43 38 46 85 68 99 86 59 82 87 65 80 83 88 68 83 60 46 51 56 62 62 54 54 62 59 69 74 78 80 80 80 78 77 79 84 80 78 77 75 80
64 58 64 62 54 58 76 99 78 77 75 85 87 84 85 84 74 79 67 54 55 49 49 56 70 70 65 74 77 75 74 79 79 79 76 73 80 80 81 87 84 81 73
86 80 74 78 57 80 71 99 83 81 86 83 80 80 70 62 53 44 43 41 44 58 56 63 55 58 63 65 64 65 74 80 75 73 76 74 73 79 83 83 78 64 43
100 100 94 94 58 73 92 88 90 78 89 85 70 66 76 56 45 37 43 52 72 74 62 64 69 74 78 77 76 70 75 79 76 77 71 72 74 78 81 67 50 41 44
95 90 91 92 58 60 74 96 92 86 88 80 82 86 77 75 66 64 70 90 88 78 67 68 74 78 79 79 78 76 75 77 79 72 71 71 74 76 59 42 36 32 33
100 99 89 89 76 62 80 81 72 65 80 79 78 84 89 87 80 68 70 79 86 80 85 91 88 84 85 83 78 77 75 74 69 73 75 76 72 49 41 43 40 34 36
89 100 100 90 83 66 55 50 60 63 72 82 85 95 90 83 76 73 76 82 81 85 84 87 89 84 82 89 87 88 88 80 76 82 73 70 63 54 52 51 46 40 37
91 100 96 70 87 84 81 70 72 76 73 87 85 76 74 70 67 66 71 76 72 73 76 86 82 80 81 75 89 89 92 80 79 75 74 78 73 66 57 47 40 45 37
90 100 84 78 92 90 90 86 83 79 80 81 80 80 86 88 83 82 75 71 70 72 71 75 66 67 71 65 78 80 88 93 82 77 75 75 77 69 64 54 54 49 53
100 100 92 84 84 96 95 81 81 71 78 81 81 81 81 88 91 79 74 68 73 73 78 75 75 69 62 65 66 83 93 96 81 78 70 63 64 58 45 48 50 54 51
100 98 100 95 92 91 97 96 91 90 84 77 78 86 92 88 89 85 78 77 70 66 75 79 79 76 56 50 76 81 96 94 81 73 70 67 80 68 49 50 49 50 53

GFSSE_850_rhum_099.txt.gz
RH
73 46 42 36 37 42 47 52 57 63 67 64 57 57 67 70 80 56 43 36 77 84 81 84 85 81 22 23 44 39 46 48 52 40 38 63 76 79 51 51 51 64 70
66 54 46 42 39 37 44 50 66 62 69 66 59 59 70 73 78 54 58 70 84 84 81 87 83 28 20 24 28 25 29 33 33 36 47 56 78 75 48 48 66 80 78
70 63 52 50 47 41 42 43 48 57 63 68 62 60 67 77 76 58 76 86 88 84 78 85 55 22 23 24 24 35 48 51 45 31 30 37 47 59 61 82 71 79 82
76 72 57 58 56 49 49 48 46 47 54 62 63 59 59 76 74 66 83 83 77 68 73 68 28 25 26 27 32 48 54 55 42 35 30 27 33 37 49 61 55 60 68
80 76 70 59 62 58 53 51 49 48 51 53 61 60 69 79 74 48 75 72 71 53 64 48 30 27 30 33 37 48 58 58 51 42 34 31 30 31 31 33 34 39 50
76 75 74 69 67 65 57 52 46 41 57 60 65 59 71 80 76 35 61 78 55 53 53 34 29 33 35 36 39 46 50 48 43 38 34 35 34 34 33 33 33 32 32
72 78 77 80 72 68 59 52 39 35 62 57 62 63 80 78 67 46 84 83 37 42 33 31 33 35 36 36 40 51 55 57 47 46 40 40 39 39 38 37 37 37 37
68 80 81 85 80 67 58 48 40 49 54 63 69 66 87 79 52 74 94 56 32 61 36 33 34 36 37 38 42 47 54 57 53 51 44 46 45 44 43 43 44 45 46
80 86 88 92 83 68 61 48 54 54 59 66 68 74 91 91 42 84 100 58 74 88 37 36 38 40 41 41 41 47 60 61 52 60 56 49 49 47 47 48 50 53 55
78 88 86 96 89 73 61 52 58 64 60 70 78 90 95 87 74 98 98 37 87 77 38 39 41 40 41 40 42 44 60 65 58 61 60 51 50 50 51 52 55 58 61
75 80 96 97 92 78 66 45 60 76 72 70 82 93 100 83 73 100 96 52 85 39 40 43 42 41 41 41 41 43 55 62 67 66 66 61 52 51 51 53 59 64 66
58 66 76 90 95 84 74 52 58 86 77 84 86 99 100 83 97 98 97 60 73 46 44 43 41 40 38 38 38 40 55 59 62 62 64 61 53 53 54 56 62 66 71
55 61 66 74 80 85 82 87 68 84 92 89 96 99 100 81 78 88 99 96 52 49 47 42 38 37 37 41 44 49 58 59 63 66 67 67 60 56 57 62 71 72 69
53 50 53 66 76 81 87 80 96 72 97 99 99 99 99 76 46 64 77 62 40 46 47 43 37 37 38 42 44 54 64 59 65 74 78 73 74 63 63 70 73 71 68
48 49 57 57 57 72 73 93 96 95 62 96 99 99 100 90 43 50 36 35 41 47 45 37 38 41 46 43 49 59 73 75 82 82 83 78 78 83 78 75 77 78 76
62 52 54 54 45 51 48 54 82 98 82 63 90 98 99 78 45 47 40 40 44 42 38 41 44 44 48 51 55 61 68 82 78 76 79 75 78 82 75 80 79 72 67
66 67 63 54 50 46 48 72 68 75 99 60 82 67 87 76 62 49 45 41 39 40 44 45 52 56 56 57 68 74 77 78 82 78 75 74 72 78 76 83 76 66 55
61 64 64 72 58 47 49 68 42 75 95 67 75 74 83 86 73 54 50 37 35 40 45 45 49 57 61 61 71 74 74 73 80 78 74 72 75 74 79 82 82 57 42
56 72 86 77 62 54 59 73 80 76 94 85 78 88 88 88 81 77 58 48 46 47 47 50 56 52 57 60 62 62 69 75 76 75 72 74 70 71 76 80 73 46 34
52 75 76 78 73 73 70 72 64 96 94 86 83 88 88 85 76 70 57 53 54 60 65 62 57 59 60 66 74 74 67 76 76 77 76 71 68 71 74 78 42 35 34
62 68 94 89 93 99 79 66 95 99 95 91 84 86 82 63 58 56 64 83 89 80 67 60 64 75 77 79 78 78 76 75 75 75 74 77 76 72 72 38 40 50 42
57 59 99 96 99 94 81 64 66 82 92 84 75 68 58 68 68 74 88 84 85 79 75 77 81 76 84 84 80 77 79 75 74 75 78 81 76 75 46 50 56 52 39
65 58 66 100 93 80 85 84 83 94 99 94 84 82 83 77 82 82 71 72 77 82 77 79 74 71 73 82 79 79 84 68 67 69 79 79 76 67 61 65 64 59 49
78 77 85 99 100 93 86 82 83 86 83 86 81 82 74 77 74 79 80 82 78 76 73 68 63 68 69 70 72 75 85 81 80 86 83 84 82 75 74 64 54 55 43
79 86 96 100 100 98 83 83 84 90 81 90 85 84 84 81 80 83 80 77 69 71 69 66 62 64 68 71 73 64 69 78 94 83 82 79 78 72 66 59 54 56 52
94 82 100 99 100 96 90 90 84 88 84 82 69 80 81 77 83 74 79 79 78 76 70 66 67 75 73 70 77 68 64 62 78 92 83 78 76 71 72 72 54 49 47

GFSSE_850_rhum_102.txt.gz
RH
80 53 47 44 40 42 43 50 55 61 55 55 59 60 60 63 76 44 23 37 62 85 79 90 78 33 30 29 57 68 76 37 37 54 66 80 52 45 48 60 70 67 59
60 55 45 44 41 41 39 47 57 66 62 59 56 61 65 70 70 37 29 73 78 86 83 90 60 22 43 31 30 29 30 30 32 44 54 61 64 45 65 77 79 78 58
57 51 46 43 41 39 42 44 53 61 65 62 54 61 68 74 62 44 47 85 86 82 84 72 22 26 32 26 32 36 35 30 28 34 43 40 54 76 77 70 79 84 81
64 50 47 44 42 42 45 48 55 61 74 65 58 61 73 74 59 66 83 90 80 83 70 54 24 25 26 39 49 52 45 42 35 28 30 35 40 54 46 46 55 62 63
70 61 49 44 43 42 44 46 49 54 60 72 62 64 74 74 65 72 80 86 78 69 63 27 26 27 31 48 52 51 53 50 44 35 31 31 31 32 34 33 36 41 38
70 72 60 54 52 49 50 49 48 53 53 59 71 70 68 76 66 74 85 67 60 60 52 28 28 31 37 45 50 46 40 42 43 37 35 34 34 33 33 33 33 33 33
68 75 73 62 62 58 55 55 53 52 66 57 64 68 72 80 69 68 67 66 48 50 39 28 33 36 38 43 47 45 46 50 46 39 40 39 38 38 38 38 38 38 39
67 70 74 74 65 66 61 55 50 45 58 57 63 68 71 84 69 62 66 73 42 36 29 31 35 36 36 40 46 44 44 48 49 43 45 44 42 42 43 43 44 47 49
75 80 77 76 80 70 63 56 46 37 54 64 63 70 72 86 62 59 84 78 36 30 30 33 35 36 37 41 46 52 51 51 55 52 46 47 46 46 46 47 48 50 53
82 87 86 86 87 75 61 56 43 53 46 72 69 73 81 89 56 83 99 64 80 37 34 35 38 41 41 42 44 52 52 48 46 54 50 48 48 48 48 49 52 56 58
83 83 84 92 92 85 62 56 48 63 49 75 75 77 82 97 70 91 69 47 98 67 36 40 40 40 40 40 41 45 54 49 51 52 57 54 51 50 50 50 55 60 63
68 74 70 84 97 90 72 60 51 72 65 74 79 82 99 98 74 90 68 67 92 58 39 43 43 42 40 39 40 42 48 48 48 50 55 55 52 51 51 53 57 64 66
60 64 66 67 69 87 78 66 62 80 77 68 79 89 100 100 78 86 82 84 78 36 44 44 41 39 38 36 36 40 49 50 49 60 63 59 57 55 54 56 62 65 64
66 56 59 62 68 71 81 67 64 88 92 83 77 91 94 99 76 88 80 71 53 38 43 43 39 37 37 40 43 45 54 53 50 62 76 71 69 66 62 64 67 70 66
56 72 62 60 63 71 80 74 60 68 89 98 94 96 97 100 88 85 82 60 39 40 44 42 38 37 37 40 44 47 56 64 67 73 74 72 75 80 70 69 72 69 64
53 60 67 73 67 61 74 78 70 63 64 96 100 100 99 99 96 75 72 62 46 42 45 44 37 37 43 44 42 52 57 73 82 80 78 75 77 76 78 71 70 66 64
65 66 68 66 87 89 75 76 73 64 60 72 85 98 100 100 97 64 42 43 42 48 47 42 43 48 50 46 50 56 64 74 81 80 78 74 72 72 78 74 73 79 71
52 64 69 69 64 61 72 81 74 73 76 64 64 85 100 99 100 85 58 37 48 49 42 43 47 44 47 52 52 60 70 72 74 82 79 74 71 74 75 74 80 85 68
41 48 52 61 64 60 66 59 50 48 76 60 50 67 88 66 89 76 53 47 46 46 42 47 46 46 55 58 61 67 71 66 67 76 78 77 72 72 70 73 79 80 49
53 51 46 58 63 65 71 73 67 63 87 74 67 54 77 71 80 92 84 55 53 54 56 52 47 53 59 60 62 65 65 64 73 74 72 72 73 72 68 72 77 66 39
63 60 53 53 49 51 71 75 86 71 63 84 76 58 63 86 88 93 85 75 70 56 46 51 63 67 65 71 76 76 74 67 71 73 72 72 75 66 69 73 74 44 52
68 68 67 64 68 82 90 88 74 80 97 82 84 80 85 76 86 88 87 78 61 55 69 74 72 71 76 81 82 80 80 75 74 76 76 73 77 79 78 77 62 42 60
69 72 63 65 84 83 97 98 93 100 100 98 94 81 76 72 83 86 80 67 72 77 75 74 64 72 77 76 78 80 78 75 72 72 76 78 79 81 82 80 51 62 59
61 74 64 52 57 58 100 100 94 94 100 99 92 92 93 85 81 71 69 78 81 70 59 69 75 76 73 71 71 66 68 69 73 77 76 87 86 83 80 76 72 67 56
60 71 64 50 53 76 98 99 89 77 92 91 96 88 88 79 73 70 80 79 80 83 75 72 75 71 70 72 67 66 72 70 87 89 84 82 87 87 89 79 72 65 55
79 83 76 76 86 94 100 100 97 96 99 94 96 90 85 87 86 84 81 82 84 82 75 72 79 78 77 77 74 72 73 75 84 86 88 82 85 87 85 81 72 72 58

GFSSE_850_rhum_105.txt.gz
RH
60 57 71 63 61 60 60 60 60 59 61 62 62 66 69 72 72 45 22 30 57 87 90 72 84 94 78 92 91 82 40 44 72 69 70 50 51 48 74 63 72 48 38
59 59 68 64 63 61 60 60 57 59 49 52 59 60 59 65 72 31 29 54 83 85 94 77 45 88 88 68 72 40 32 35 48 59 60 49 52 74 78 83 69 66 63
62 57 59 71 76 72 61 57 60 61 52 53 55 60 61 71 55 25 50 77 84 84 83 45 25 64 30 30 29 28 30 37 43 49 54 72 79 70 81 85 82 83 83
56 51 45 57 76 75 70 59 64 69 63 57 54 63 65 75 47 34 82 83 85 80 69 22 25 27 30 35 38 37 33 30 30 36 43 49 71 58 63 62 62 71 63
59 48 41 44 52 74 70 64 62 65 67 62 56 72 67 73 50 51 85 84 82 69 68 23 25 28 39 42 46 46 44 39 32 30 33 33 35 34 34 37 39 36 34
65 50 43 40 42 45 65 69 64 62 74 70 63 75 75 71 67 75 86 84 78 64 29 26 27 31 41 43 46 46 42 39 35 34 34 33 33 33 33 33 33 33 34
72 61 51 44 42 41 44 56 56 58 59 66 70 71 75 73 72 74 81 83 70 61 27 27 29 33 39 41 42 45 45 40 37 38 38 37 36 36 36 37 38 40 42
77 71 59 50 49 48 47 48 48 50 56 58 67 74 71 78 74 75 76 69 57 55 30 29 33 36 38 40 42 44 46 43 39 42 42 40 40 40 41 42 45 47 49
84 80 70 61 59 58 56 54 52 49 50 64 60 68 71 85 77 70 58 59 54 47 31 32 35 35 37 39 40 42 46 48 46 43 43 44 44 44 45 46 48 52 53
81 86 84 75 71 69 66 60 52 48 42 57 58 63 75 89 83 67 54 68 44 39 30 34 35 35 37 40 39 42 46 45 50 47 45 46 45 45 46 47 51 54 56
78 91 88 88 86 83 74 64 54 43 39 57 63 66 78 91 87 59 60 71 42 32 32 35 36 40 40 42 43 42 44 44 49 52 52 49 48 46 46 48 54 58 60
74 82 82 90 87 92 81 66 56 43 51 69 77 72 80 94 88 66 80 58 47 36 34 36 41 42 40 39 40 42 42 45 49 50 52 52 51 51 50 50 55 62 64
76 76 76 69 80 86 86 70 61 59 64 58 80 75 80 90 89 90 93 72 84 38 35 39 42 41 40 40 39 41 44 44 46 52 56 59 57 54 54 54 61 65 64
46 65 77 77 72 72 84 79 61 52 78 66 82 81 83 87 94 90 93 66 76 40 34 38 40 41 40 39 38 40 44 50 50 56 63 64 66 68 61 64 67 70 68
32 44 71 75 74 71 72 80 69 52 62 78 73 82 90 89 96 85 89 69 77 64 39 40 40 39 38 40 42 41 46 53 49 58 70 73 74 72 70 71 66 69 62
26 32 50 70 80 74 73 82 76 64 51 72 81 77 91 92 93 93 79 74 51 50 49 47 39 36 37 42 46 45 49 62 66 74 77 76 78 76 76 78 68 72 76
26 34 52 56 76 76 74 76 82 73 62 64 59 74 91 94 94 94 89 73 67 46 56 55 48 40 40 46 44 44 52 61 77 79 80 76 76 77 76 78 76 76 79
27 35 60 66 70 77 78 82 80 80 76 66 60 66 73 94 99 100 99 81 83 57 60 55 48 40 46 54 48 49 55 62 70 79 79 77 76 75 75 76 72 74 79
28 28 52 68 72 73 78 86 86 87 83 73 76 73 69 68 91 99 100 94 99 83 58 55 47 46 50 52 52 53 64 65 68 67 72 78 76 74 74 72 72 73 77
30 28 42 50 63 71 69 68 66 75 88 89 85 74 79 76 64 89 91 81 81 93 65 62 51 57 52 55 60 60 67 69 66 65 68 73 71 71 70 73 75 72 76
31 45 40 51 55 68 69 70 68 67 63 61 53 56 78 72 64 77 75 72 77 78 58 54 55 67 59 67 71 69 67 66 63 67 70 73 75 74 73 71 72 73 73
35 52 45 52 52 52 51 52 60 62 67 65 59 63 84 74 70 67 68 68 67 53 72 56 71 65 65 71 72 79 78 73 67 64 70 75 76 77 76 73 76 78 69
54 54 49 55 55 53 52 61 79 89 93 85 75 63 80 90 78 72 62 71 75 69 66 83 72 60 71 74 76 79 81 77 68 62 65 63 69 78 78 79 82 76 55
60 54 49 62 65 62 56 64 76 86 97 91 87 89 98 100 89 77 88 83 78 56 77 70 78 78 76 74 79 78 76 73 69 73 66 62 75 83 86 85 86 82 71
60 61 73 72 63 55 58 60 77 97 98 100 100 100 100 100 91 82 61 69 66 77 67 68 72 64 69 78 77 70 69 64 66 83 77 75 77 84 90 89 85 84 84
57 60 68 79 72 59 60 64 97 98 99 98 100 99 98 97 97 93 86 80 77 78 76 73 68 73 80 76 80 75 71 74 74 80 78 80 86 83 90 90 92 95 81

GFSSE_850_rhum_108.txt.gz
RH
59 62 61 66 72 72 64 58 59 70 74 74 76 74 68 67 71 41 22 29 70 89 69 60 73 96 95 76 48 70 71 81 72 61 60 51 59 65 72 46 41 35 38
71 67 67 66 71 73 69 66 63 64 67 69 69 70 68 66 70 30 26 56 84 88 89 72 79 90 80 90 39 33 44 46 53 42 40 68 76 77 79 73 77 67 60
71 63 71 63 72 72 71 67 65 64 64 64 64 63 63 66 62 27 45 80 86 90 90 69 93 62 37 40 30 30 36 45 48 50 51 61 81 84 82 81 83 83 80
66 62 68 61 72 66 66 67 64 63 53 53 58 59 60 71 48 29 72 84 88 84 46 24 24 23 25 28 30 30 31 34 40 44 55 54 46 56 57 52 46 47 56
79 70 64 62 74 69 66 64 63 65 57 56 56 60 63 71 40 52 79 88 90 74 36 22 24 26 32 36 37 38 35 30 31 34 35 36 34 33 33 32 32 33 32
72 68 60 60 76 73 68 62 63 70 66 62 56 73 70 72 42 73 82 88 77 71 41 24 26 31 37 39 40 39 37 33 32 32 33 32 32 32 32 33 34 35 37
72 64 56 54 65 73 71 64 60 61 67 68 62 80 76 72 52 75 87 86 77 59 25 26 28 34 37 38 37 36 35 34 35 35 35 34 34 35 36 38 40 42 44
76 65 59 58 55 53 54 64 62 55 56 68 68 67 74 75 76 77 87 85 76 57 25 28 30 34 36 37 38 40 39 36 37 38 38 38 38 39 41 42 45 48 50
87 78 62 58 55 55 55 52 52 50 51 52 63 71 71 82 79 77 79 81 70 58 27 29 32 34 34 37 38 42 43 40 39 40 41 41 41 42 44 46 49 52 53
89 89 82 65 54 53 54 56 55 51 48 52 50 62 72 78 85 83 78 74 58 52 30 31 34 34 35 37 40 44 45 49 47 44 43 44 44 45 46 47 49 53 55
86 88 93 79 65 61 61 62 64 61 54 51 60 58 68 73 88 83 70 55 63 47 34 32 34 34 36 37 39 42 45 44 48 50 49 47 47 48 48 50 54 57 63
79 89 89 94 82 71 70 71 69 66 58 50 59 63 67 74 86 88 72 59 71 55 35 35 35 34 37 37 37 39 41 44 49 51 53 52 50 51 52 54 58 61 64
38 67 90 92 95 90 88 83 74 64 54 49 74 72 69 80 84 91 71 77 80 56 40 38 38 38 36 36 37 39 39 40 43 46 52 54 54 54 54 56 60 66 65
25 37 60 88 84 87 89 87 86 69 54 55 65 80 77 84 89 95 75 78 74 80 45 40 42 41 37 36 36 38 39 42 46 52 59 59 63 64 62 62 65 68 71
24 26 39 64 82 78 79 83 88 80 70 54 51 79 80 81 87 92 86 85 74 68 57 46 49 44 42 38 36 37 38 42 47 48 60 69 69 71 71 73 70 66 62
22 23 27 42 77 81 76 77 82 86 75 58 60 66 80 82 84 84 85 87 84 60 80 55 54 50 48 42 39 40 42 48 54 51 62 70 74 76 72 74 77 70 72
19 22 26 29 48 75 79 76 75 80 81 74 68 68 68 83 91 89 86 91 87 75 54 73 54 54 49 44 43 46 48 52 56 59 68 74 75 78 79 76 78 74 72
25 22 24 27 41 53 70 80 76 80 84 76 72 72 72 74 74 88 92 94 92 78 66 67 60 58 47 45 47 48 47 52 58 62 73 76 78 76 80 81 79 76 74
31 24 23 26 40 58 66 79 82 84 83 80 77 70 70 72 78 81 84 92 100 98 85 91 67 61 48 47 55 56 51 52 56 62 72 76 80 79 77 78 78 77 75
38 38 30 26 35 71 76 86 82 84 88 82 81 74 71 73 73 76 78 83 93 98 74 87 64 72 58 53 70 66 59 57 63 66 67 69 74 79 79 75 76 77 77
46 39 34 28 31 50 81 97 99 94 84 79 70 75 72 74 74 76 80 96 92 88 62 73 82 70 75 57 81 67 64 64 65 64 64 58 63 64 69 71 70 76 73
44 40 34 32 30 44 66 79 77 71 68 64 66 67 71 72 70 79 84 84 89 83 61 58 56 57 75 61 90 76 77 68 59 58 57 57 58 66 70 73 77 77 71
41 37 34 33 40 42 56 73 85 82 76 70 67 64 64 65 59 59 74 82 86 85 78 65 62 70 70 59 86 85 83 74 64 63 64 61 63 64 69 75 77 79 83
37 34 31 35 52 52 53 61 63 55 50 48 48 51 61 62 66 66 78 84 84 86 59 58 50 55 57 69 82 82 82 75 75 69 63 63 65 66 73 73 82 85 90
53 43 40 39 59 57 54 55 54 58 64 69 83 71 74 78 78 76 82 94 83 77 77 68 60 54 57 74 77 79 80 84 74 76 68 61 64 71 74 74 81 94 90
58 44 57 59 56 58 70 68 64 59 58 67 91 92 94 92 98 98 92 96 92 84 78 74 67 52 72 65 69 71 69 74 78 74 76 74 81 77 76 75 84 87 93

GFSSE_850_rhum_111.txt.gz
RH
64 71 69 61 62 68 74 76 75 74 76 75 75 74 70 71 69 32 23 48 86 92 73 66 61 75 86 62 55 75 82 70 69 63 47 57 60 58 40 34 34 40 45
82 75 88 89 67 64 65 63 67 73 75 75 75 74 67 67 68 26 25 67 84 83 58 85 92 91 80 60 36 58 62 50 45 42 54 69 73 61 70 61 52 53 55
86 86 81 88 84 72 64 60 64 71 73 75 74 70 68 64 63 27 40 85 93 91 61 75 84 81 53 25 26 30 38 40 33 38 62 75 85 82 82 84 82 81 80
86 95 80 76 76 72 73 69 66 66 66 66 64 67 65 64 56 29 64 86 92 91 47 32 29 28 29 27 30 34 37 39 47 56 47 52 64 61 58 62 62 64 64
87 92 90 74 74 70 78 71 66 65 64 54 57 60 62 65 48 48 79 88 91 65 26 22 23 26 29 30 30 30 30 34 36 39 37 34 38 36 32 31 31 33 34
95 93 87 81 74 69 70 69 66 62 57 52 53 57 61 67 40 66 80 87 76 61 27 24 26 32 37 39 37 34 31 30 31 32 32 32 32 31 31 33 34 36 38
98 96 92 85 80 72 70 69 64 62 63 61 55 58 65 69 44 69 83 86 76 64 31 25 29 36 39 39 39 36 33 32 33 33 33 33 33 34 36 38 41 43 44
100 93 90 86 81 77 73 68 62 63 68 67 62 62 75 72 54 71 84 88 79 56 25 26 30 36 38 37 37 37 34 34 36 37 36 36 37 39 41 44 46 49 50
96 98 84 86 83 79 76 75 65 62 63 68 71 64 70 76 75 68 81 88 82 56 24 27 31 35 36 38 39 40 37 36 38 40 40 41 42 44 45 48 52 55 55
91 95 98 86 88 78 74 75 71 66 62 60 64 72 74 79 82 83 81 87 82 66 31 28 32 35 35 36 38 40 42 41 40 40 42 44 45 47 49 51 54 57 59
89 90 96 99 90 72 60 64 69 68 63 59 59 66 78 80 86 87 87 78 73 58 50 30 34 37 36 37 38 40 42 48 47 46 46 46 47 49 51 52 55 58 61
58 83 94 94 98 92 60 57 61 62 65 67 66 68 78 80 81 87 85 79 64 61 56 32 36 40 41 40 38 40 42 40 45 51 51 51 50 51 52 53 56 62 65
20 48 65 89 95 100 90 75 72 67 67 65 66 72 80 81 83 91 90 84 67 70 61 39 38 39 38 44 43 42 41 42 44 47 50 51 51 51 52 55 58 64 64
16 21 39 63 86 95 100 93 86 80 73 66 60 70 76 77 81 87 96 86 68 69 54 38 38 38 40 42 44 46 46 44 46 47 53 54 55 56 56 57 63 67 70
15 16 24 42 63 85 88 91 94 93 89 74 57 53 71 76 74 82 93 90 72 70 62 46 40 42 45 45 44 43 42 44 46 50 54 62 63 64 67 68 74 66 64
14 12 17 26 45 63 80 80 77 83 90 84 68 57 63 76 75 76 83 92 79 79 67 61 47 51 51 52 48 47 45 41 45 51 53 61 72 75 76 75 74 76 69
16 12 14 18 29 43 75 78 77 76 88 88 82 73 65 79 82 81 86 89 88 86 80 77 64 52 54 55 47 45 45 48 50 51 58 62 74 78 80 79 79 80 70
31 18 11 16 21 30 51 77 76 74 79 89 84 76 71 71 76 76 84 85 87 93 93 83 80 70 53 50 49 45 51 52 56 59 62 71 76 79 78 80 80 79 75
41 35 20 15 22 24 32 58 76 81 79 88 87 80 74 75 76 78 79 83 82 94 97 89 82 90 69 55 53 47 53 55 54 56 59 63 73 78 78 78 79 80 78
44 47 34 23 23 26 25 47 66 82 87 86 86 79 75 76 79 80 80 82 85 88 90 98 81 82 84 70 62 49 52 62 59 55 59 60 66 71 72 76 76 75 74
49 49 37 30 25 30 28 50 66 84 82 85 89 82 79 77 73 77 77 82 85 82 80 92 76 63 50 46 74 57 48 62 64 54 55 65 64 63 65 73 76 76 76
47 44 42 34 39 37 31 44 74 72 78 78 82 86 85 76 70 64 68 79 78 82 84 94 85 52 61 53 78 67 66 67 56 50 53 58 60 62 64 68 74 77 78
51 48 42 39 37 33 34 39 65 98 91 84 85 84 76 64 70 68 73 67 80 88 86 91 88 69 64 60 63 68 68 81 62 54 47 47 58 60 64 68 70 72 77
57 50 45 40 35 34 34 46 56 87 92 74 69 66 66 67 68 69 78 67 67 78 92 91 86 59 58 55 57 66 64 80 82 72 68 60 61 64 64 66 64 71 76
64 51 34 36 37 41 38 52 58 75 75 68 64 62 57 55 62 64 66 68 68 74 91 99 95 90 79 69 55 49 64 80 86 89 75 66 68 67 65 68 73 75 71
73 64 54 42 37 36 36 57 86 66 72 74 62 52 46 50 54 65 69 72 74 77 79 92 92 89 74 63 59 54 68 73 76 81 80 69 72 63 69 75 77 74 74

GFSSE_850_rhum_114.txt.gz
RH
94 99 96 92 75 74 70 74 80 78 76 75 76 76 74 73 61 26 38 72 79 56 62 46 87 88 80 57 64 78 82 84 69 58 38 74 47 37 35 52 80 75 42
96 99 95 91 80 73 68 72 74 73 73 74 76 75 73 70 62 26 42 79 89 53 65 58 89 84 70 45 71 78 68 62 53 40 64 66 49 44 37 37 40 46 61
89 98 96 90 81 78 70 71 73 70 75 74 74 75 70 67 62 25 49 88 94 58 82 89 92 76 38 36 51 42 33 38 37 66 82 99 84 82 81 80 81 82 82
89 96 99 89 77 72 64 61 64 70 73 75 75 70 68 64 58 27 62 82 92 73 56 76 81 55 26 28 33 35 36 30 43 70 91 96 96 75 81 80 78 79 73
93 96 100 89 84 78 70 64 64 66 72 69 66 62 68 61 55 32 73 90 94 64 30 28 28 27 27 31 35 37 38 45 52 74 91 92 89 46 42 37 34 36 34
98 97 95 86 86 74 79 73 67 64 62 60 53 57 62 62 52 58 78 89 90 51 24 23 25 28 30 31 30 31 33 36 40 75 84 42 89 34 33 34 36 37 38
95 96 96 82 82 79 71 75 70 64 60 54 54 57 62 64 50 52 78 86 82 57 26 24 29 34 37 37 36 33 31 32 38 37 45 52 38 34 36 40 43 45 45
98 97 94 88 89 83 74 74 71 64 63 59 61 58 70 71 50 59 69 84 80 65 32 26 33 39 40 38 37 35 33 33 36 38 38 54 36 39 42 46 48 50 50
92 98 93 92 89 88 84 80 77 67 67 68 66 65 69 77 68 64 76 84 86 62 31 26 35 42 41 40 40 38 35 36 54 55 44 68 40 43 46 48 51 53 54
88 89 93 90 97 96 93 84 83 75 70 71 70 73 74 82 75 76 76 88 88 68 31 25 32 41 44 45 47 46 40 40 61 40 46 62 44 45 47 50 53 56 58
60 87 87 91 94 98 94 94 81 80 77 77 75 78 79 87 89 83 89 86 90 80 54 27 30 38 41 47 49 48 49 57 52 58 68 45 45 46 49 50 54 58 59
30 55 82 87 91 95 95 98 89 88 80 82 85 87 80 98 98 99 93 90 88 81 67 37 30 38 42 55 44 48 52 71 75 62 60 49 48 48 50 53 56 59 63
18 22 48 76 84 87 95 88 97 95 94 96 98 96 99 97 97 93 89 94 92 78 71 62 32 38 48 84 82 62 64 61 74 62 54 52 51 51 53 56 58 63 67
11 15 22 41 65 80 88 94 93 97 95 93 82 96 98 98 98 98 96 91 93 92 96 89 54 67 81 59 74 74 63 57 55 58 67 53 54 57 58 60 63 68 70
11 10 14 19 39 58 77 90 91 93 93 92 71 72 94 97 98 99 100 96 95 99 98 94 84 73 41 52 56 47 60 66 74 72 51 54 60 63 68 66 69 64 60
19 10 10 12 18 37 57 79 86 91 99 97 89 76 66 92 98 99 97 99 99 100 100 96 83 77 80 60 50 48 54 59 61 63 60 62 57 68 72 71 70 74 77
30 20 10 10 13 20 38 64 82 84 92 88 90 86 72 63 95 96 94 100 100 99 98 78 86 61 52 81 51 65 48 58 63 68 69 61 57 65 73 74 74 77 76
31 29 19 14 11 15 24 37 69 83 83 83 85 86 79 78 66 84 93 98 100 99 96 86 87 95 92 82 76 75 60 57 64 71 73 76 72 69 72 74 76 79 79
40 34 33 28 20 14 24 33 44 80 84 80 82 89 84 77 75 74 83 90 94 93 84 91 89 72 84 69 60 69 75 58 65 65 65 72 76 69 77 74 74 76 78
43 40 36 35 31 22 49 54 32 52 82 79 81 83 90 85 76 74 80 85 85 86 88 96 98 83 81 85 85 62 67 63 60 59 58 62 67 58 64 74 76 74 76
47 48 41 36 35 31 43 69 27 32 63 81 77 81 87 87 80 78 81 82 82 86 86 86 91 96 80 63 57 65 56 47 47 41 49 44 50 55 59 62 64 74 75
53 50 46 43 43 40 53 61 48 27 48 77 75 80 84 84 78 71 71 73 79 77 88 86 95 97 93 70 60 72 68 57 51 41 44 46 42 54 54 59 61 67 73
57 46 43 38 42 43 66 77 92 45 93 93 99 98 82 80 80 73 78 77 76 93 78 93 95 94 94 91 72 80 68 69 59 59 46 35 49 50 56 58 62 68 72
76 57 51 46 46 44 61 83 93 92 99 97 98 85 86 90 82 81 82 79 74 72 70 78 93 93 90 100 91 76 67 74 68 65 53 43 58 69 57 64 68 68 63
96 65 59 53 49 47 71 77 83 96 100 99 100 100 98 86 81 79 76 81 76 73 76 98 98 93 88 100 95 100 96 90 79 71 59 68 75 71 75 71 67 67 56
100 96 62 60 42 46 77 83 82 57 98 99 100 99 89 77 73 72 72 69 75 90 88 80 95 98 93 98 94 93 92 84 95 84 64 69 80 72 75 73 67 72 63

GFSSE_850_rhum_117.txt.gz
RH
86 95 95 94 84 78 77 76 80 80 77 73 73 72 73 68 55 26 33 50 47 26 22 47 80 84 58 43 82 85 90 70 57 43 77 41 36 44 76 80 96 44 39
87 97 92 92 85 76 77 74 78 82 79 75 73 72 71 68 55 28 61 69 64 32 41 88 90 83 46 73 81 78 76 54 41 57 64 40 34 34 39 40 41 58 81
92 98 93 91 82 71 73 72 72 76 74 74 75 75 71 65 60 29 76 80 81 62 73 78 78 59 40 60 70 61 57 44 56 78 97 90 78 68 69 76 86 85 86
98 98 93 89 80 75 69 70 71 70 70 74 75 72 73 67 62 28 72 85 94 65 85 86 78 28 27 37 38 34 37 41 78 90 94 90 95 84 80 70 80 72 71
97 100 94 87 86 72 68 69 66 66 71 74 72 76 66 67 62 30 67 88 92 58 64 70 63 28 26 32 35 39 36 50 66 85 84 87 91 50 44 40 39 39 34
97 98 98 89 91 81 68 61 61 61 68 73 72 74 62 64 61 32 75 90 88 54 32 28 37 28 30 33 35 37 41 55 69 84 85 80 88 34 33 34 37 38 39
93 98 96 92 90 88 82 78 70 65 66 66 61 56 62 62 60 43 78 87 83 55 25 25 26 30 32 34 32 31 34 37 74 81 83 88 37 33 36 40 42 44 44
82 89 97 96 85 86 84 83 81 71 67 64 56 57 61 63 65 63 70 83 85 66 32 25 30 35 40 40 39 35 32 33 60 74 81 89 36 37 41 44 47 48 48
89 92 99 99 87 87 86 86 82 77 72 66 67 69 65 71 69 59 63 83 88 71 44 26 33 37 38 39 40 39 36 38 69 74 78 76 38 40 44 47 50 50 51
72 90 91 100 99 97 92 85 84 82 78 72 70 73 72 81 77 72 73 81 90 81 45 26 33 40 39 37 41 41 38 41 73 71 78 76 42 42 45 48 52 54 55
28 70 87 88 95 96 97 96 84 84 82 80 78 76 80 84 87 75 81 80 88 88 54 26 31 40 42 40 40 42 43 48 72 75 77 58 45 44 46 47 51 55 58
20 27 66 82 88 86 95 98 88 83 82 87 91 91 82 94 97 90 96 84 87 92 78 45 28 37 43 46 42 43 45 78 76 76 77 51 47 47 48 50 52 54 59
18 16 22 53 77 86 91 90 96 92 88 91 94 92 95 90 82 97 95 92 93 95 87 70 36 34 42 77 80 52 54 78 74 78 80 52 49 48 49 50 51 54 58
26 17 14 19 36 69 82 93 88 87 84 85 87 90 88 84 82 90 87 89 89 92 92 70 67 34 50 78 79 79 76 79 77 73 75 60 48 48 49 49 51 54 59
29 17 14 10 15 28 54 79 94 89 85 82 88 95 96 90 85 85 88 86 89 96 97 89 84 79 73 83 81 75 73 74 75 72 73 69 56 55 55 57 55 58 59
37 22 19 16 10 14 24 56 74 98 95 92 87 93 95 90 84 85 84 88 89 96 98 89 84 79 79 82 74 72 69 66 67 69 70 71 62 54 62 63 63 63 73
37 38 38 31 16 12 13 26 58 75 99 98 94 97 98 95 86 86 82 84 92 90 94 93 87 78 71 72 77 74 69 65 64 64 63 68 74 58 52 63 68 67 70
49 48 38 36 29 22 14 17 34 60 84 100 95 96 95 92 84 86 91 86 93 88 92 94 98 82 79 83 80 75 69 68 66 65 65 68 70 74 66 59 64 71 75
54 54 48 42 33 28 27 28 25 72 63 95 100 99 93 85 82 71 74 83 95 90 91 92 98 89 90 76 79 81 74 68 62 64 66 67 70 70 71 83 66 66 69
64 61 60 50 49 50 45 33 44 53 60 73 99 96 87 82 84 81 80 75 94 98 99 92 92 94 85 92 92 81 76 63 67 47 48 66 59 58 46 43 52 54 64
70 68 66 60 54 54 55 44 46 65 88 54 92 94 81 83 86 82 82 77 82 92 91 95 94 98 93 86 79 87 92 66 69 49 43 46 42 41 50 45 48 50 58
70 70 70 68 63 58 58 55 47 64 86 76 58 93 99 98 94 86 83 85 82 78 82 87 94 94 95 97 96 98 90 77 52 54 50 54 46 44 50 42 46 50 53
83 72 72 70 67 62 61 60 54 60 87 88 89 86 100 99 99 88 79 79 83 72 59 84 94 96 97 99 94 96 80 75 58 56 55 66 58 68 42 44 60 46 48
87 88 83 77 68 67 66 66 60 68 86 77 83 91 100 100 100 98 84 75 72 74 84 76 95 98 99 94 97 95 85 67 70 66 62 65 74 74 56 63 48 55 56
93 87 93 92 82 74 69 68 69 73 84 92 87 98 98 100 100 100 95 90 83 75 84 90 98 98 100 95 95 95 98 91 79 83 81 69 77 64 63 63 54 66 72
94 96 93 98 97 85 69 70 72 76 79 87 85 90 95 99 99 100 99 95 90 84 86 97 99 97 95 93 96 95 95 97 97 92 90 83 71 67 64 58 58 70 72

GFSSE_850_rhum_120.txt.gz
RH
84 85 93 92 90 83 80 80 78 75 73 71 68 66 67 64 48 27 35 52 30 24 32 66 80 46 47 80 87 91 75 56 49 73 36 35 51 81 82 89 44 41 55
87 92 89 90 80 78 82 79 80 76 76 71 70 70 66 63 51 31 53 64 30 36 70 88 90 48 47 77 84 85 60 43 55 61 41 33 36 42 46 56 67 91 93
92 96 93 88 83 75 76 75 80 77 77 75 72 76 66 63 56 33 62 73 49 57 83 88 89 67 44 64 72 67 49 60 77 88 85 64 47 54 74 90 88 89 85
93 92 86 85 82 70 74 71 76 75 72 74 75 82 67 66 61 33 72 80 63 84 83 75 51 34 38 53 34 46 44 86 88 84 89 82 85 85 73 61 60 52 38
86 98 87 87 87 71 67 70 74 74 68 73 76 82 64 67 64 32 74 83 68 75 78 68 55 26 30 35 34 31 54 84 86 91 98 89 57 47 39 33 34 32 33
88 84 96 94 91 74 69 68 70 68 68 71 77 82 80 66 64 34 77 84 82 50 51 43 46 27 31 36 38 42 52 63 71 80 87 84 56 32 31 34 36 38 38
96 94 88 94 95 88 77 67 64 64 70 70 78 83 82 69 65 37 70 85 85 50 29 26 29 28 30 32 35 40 49 60 78 84 66 52 38 32 36 39 42 43 43
86 92 94 92 93 92 88 82 78 72 70 68 71 84 61 64 65 44 68 80 88 69 32 25 28 32 33 34 32 31 34 46 69 78 74 50 34 35 39 41 43 45 46
84 76 89 94 95 87 88 83 85 86 77 70 71 61 64 64 69 62 68 76 88 80 52 25 30 36 37 36 35 33 32 41 67 75 75 59 38 39 41 43 44 46 47
55 75 84 89 100 95 88 82 80 81 79 80 80 73 74 70 74 68 65 73 85 88 66 27 30 36 38 36 36 36 34 44 72 73 78 66 52 41 42 44 47 49 51
25 41 77 89 89 95 98 90 86 79 79 79 75 77 80 77 83 77 72 75 85 90 78 32 28 35 37 37 38 39 38 44 71 65 75 65 47 42 42 43 45 48 51
18 19 28 69 87 91 98 99 91 86 82 81 76 73 72 73 79 82 78 76 82 90 89 53 26 31 38 37 38 39 42 55 74 75 76 68 49 44 43 43 44 45 48
21 18 16 22 52 81 86 89 97 94 83 81 80 74 70 75 74 83 90 89 86 89 93 79 51 27 34 39 42 42 42 67 78 77 75 67 51 47 45 45 45 44 47
16 16 14 13 18 38 69 84 87 93 98 85 80 83 80 80 88 90 79 90 87 91 95 88 70 46 30 45 76 77 55 61 78 74 74 73 58 47 46 45 45 47 50
26 18 16 13 10 14 22 54 77 87 91 97 81 79 86 83 78 89 85 87 81 88 97 90 74 58 38 37 71 80 74 75 64 70 69 56 49 45 48 48 50 51 53
34 27 24 24 18 11 12 18 44 70 86 88 89 79 80 82 84 86 86 83 87 83 91 97 88 77 63 50 83 75 74 73 71 70 71 64 53 45 42 49 53 54 54
41 40 38 39 39 29 16 12 16 38 66 85 81 84 86 91 91 78 76 85 83 78 85 92 94 87 78 77 76 66 71 66 63 62 67 65 56 49 42 38 44 53 55
50 50 48 43 42 44 30 21 14 18 32 66 88 84 89 91 88 94 85 83 87 81 79 85 85 89 82 76 73 74 73 67 63 62 59 59 54 45 39 40 39 46 54
58 58 59 57 52 47 39 27 23 24 35 27 73 92 90 95 93 86 90 89 82 78 83 85 84 89 90 73 72 74 68 70 68 61 56 62 58 51 50 42 36 42 46
74 71 66 62 58 54 51 42 35 31 37 62 37 84 95 94 92 93 87 87 84 85 86 90 86 88 87 79 75 76 78 74 69 59 51 63 53 60 60 58 44 40 42
69 75 78 70 60 58 55 53 52 40 40 48 48 42 90 95 95 85 88 86 84 77 84 82 82 90 87 88 94 84 85 84 70 64 50 55 52 59 66 60 51 45 42
83 82 80 76 68 65 60 55 53 49 45 62 62 47 81 99 96 83 84 84 83 84 80 83 78 78 90 88 94 96 97 88 77 77 69 62 54 54 55 50 47 48 47
93 81 81 88 76 69 66 62 59 55 49 61 75 63 58 99 99 98 82 85 84 81 84 82 85 87 81 91 91 98 98 93 75 64 57 55 52 51 53 51 53 49 50
98 99 82 87 90 76 70 67 62 61 52 57 69 62 55 82 99 99 96 94 82 86 81 80 85 84 80 76 83 85 80 82 79 71 64 61 58 57 61 64 69 69 66
99 97 88 84 96 93 74 70 66 65 57 69 76 67 62 67 83 94 95 97 94 84 78 72 77 86 81 83 93 98 96 83 81 89 93 76 72 70 66 68 63 75 74
99 96 92 89 87 95 84 74 71 64 65 71 81 76 79 69 76 91 95 93 98 95 76 72 79 79 76 85 84 92 99 99 96 89 90 84 83 77 73 68 71 69 65

GFSSE_850_rhum_123.txt.gz
RH
84 88 94 85 84 82 81 82 74 69 67 65 64 64 63 59 40 30 40 37 25 22 48 66 38 61 81 81 82 81 60 60 62 35 36 70 88 86 82 44 47 56 51
86 91 91 88 84 82 79 78 75 73 68 65 67 66 61 58 42 36 54 34 24 46 83 92 45 37 77 84 91 68 40 49 54 36 36 45 51 43 49 71 92 90 64
80 94 91 87 83 80 81 76 77 76 74 69 68 66 63 60 48 45 66 46 42 78 89 92 76 43 54 69 79 47 50 73 87 88 46 38 41 62 88 92 91 80 39
90 88 87 85 86 73 79 75 78 79 77 73 77 82 62 62 54 44 70 63 70 70 79 67 42 40 45 47 56 45 84 91 93 90 87 79 78 86 70 57 46 33 29
89 88 91 84 87 70 78 75 75 76 75 74 77 85 60 66 60 44 76 78 65 81 78 53 26 25 33 32 42 63 88 90 88 94 86 66 58 39 31 31 31 33 34
90 87 95 93 93 76 73 76 74 76 74 74 76 80 79 67 64 38 78 85 66 65 68 48 32 25 29 33 32 64 83 87 88 87 84 72 40 31 31 34 36 36 36
93 93 85 94 94 95 77 73 76 72 71 72 76 78 78 84 64 46 67 83 84 49 45 35 33 28 31 33 36 44 58 61 73 78 77 67 41 33 36 39 41 40 41
89 89 84 87 93 96 90 74 69 71 73 72 75 77 76 82 65 53 50 81 88 69 32 28 28 28 30 30 31 36 44 51 57 57 55 50 34 35 38 41 42 42 42
78 89 84 86 89 90 95 89 80 76 75 74 75 76 78 72 66 59 52 72 88 82 54 25 27 31 33 33 32 30 33 44 53 52 54 51 37 38 39 41 42 43 44
32 68 81 80 89 97 92 87 84 82 81 74 72 72 63 66 66 70 68 70 83 88 74 34 27 32 34 34 34 33 32 42 56 62 54 55 49 39 39 40 42 42 44
19 25 50 79 99 91 96 96 94 87 82 77 74 73 73 69 64 68 69 67 78 88 87 60 27 32 34 34 35 36 34 45 55 57 54 56 51 41 40 40 40 40 42
15 13 18 32 69 96 93 93 94 93 90 80 77 72 70 70 67 67 74 70 73 84 93 78 32 30 36 36 36 38 39 42 55 58 58 55 56 44 42 41 40 40 43
17 15 12 13 22 54 92 99 94 88 94 88 82 77 71 68 68 71 75 76 75 80 90 92 59 28 32 37 37 38 43 48 57 58 62 56 54 45 41 41 41 41 41
17 17 17 13 10 14 31 76 92 92 87 88 84 81 77 71 69 69 71 81 80 79 78 84 86 62 30 35 40 49 51 50 66 72 66 59 51 44 38 38 39 40 41
29 25 22 23 19 12 10 20 51 85 92 86 86 89 80 73 76 74 81 86 78 81 80 81 85 83 66 34 37 49 71 61 65 75 67 63 52 45 38 38 38 39 42
38 38 37 36 34 32 21 13 13 27 69 94 91 90 91 79 75 81 81 93 85 82 79 81 85 84 74 58 40 58 75 74 67 66 57 52 54 45 41 38 39 39 42
53 50 48 47 42 40 37 27 20 14 19 59 92 95 87 88 78 78 80 85 87 82 84 79 84 91 84 78 60 53 76 75 72 71 66 63 60 49 40 37 36 38 42
55 54 56 54 51 46 40 35 26 21 15 18 52 88 90 85 84 82 84 86 83 80 80 81 82 86 82 80 76 60 66 72 66 68 64 65 64 51 43 41 40 41 43
57 59 60 58 54 56 51 48 41 30 24 17 17 46 89 89 87 83 88 85 83 80 83 81 82 86 86 82 80 72 70 67 69 65 59 62 61 51 50 47 48 45 42
54 60 66 70 69 60 61 54 54 48 36 25 20 17 51 88 88 87 88 91 85 90 88 83 82 87 92 90 86 78 73 74 74 66 65 67 62 58 56 54 54 50 46
68 63 55 57 71 74 73 64 57 54 42 36 28 31 27 42 82 90 91 91 93 96 91 86 84 88 89 88 93 81 78 76 73 73 72 64 61 60 63 59 67 60 49
97 99 97 82 63 79 78 73 61 60 54 47 40 30 34 42 60 89 95 95 90 92 93 86 89 90 86 86 87 96 97 88 80 76 76 72 63 59 60 54 57 56 52
100 95 98 98 85 78 86 78 70 64 59 55 50 46 51 47 46 68 94 92 92 87 88 87 84 82 88 84 89 91 100 95 88 83 72 66 67 67 61 57 54 56 56
99 91 87 94 93 81 89 80 73 69 64 60 54 51 62 57 48 58 78 84 95 88 86 87 82 80 86 89 88 90 93 88 92 72 66 61 60 59 58 58 56 56 59
98 96 92 90 92 83 92 86 76 71 68 65 60 55 64 67 61 55 66 76 94 93 94 93 90 86 84 89 87 86 84 94 93 94 94 82 73 68 65 65 64 62 59
96 100 99 84 90 86 96 92 87 74 70 66 62 61 71 59 62 60 67 76 91 86 93 94 92 92 86 88 83 83 86 85 86 90 82 82 82 74 73 72 73 71 69

GFSSE_850_rhum_126.txt.gz
RH
84 88 91 86 83 87 81 75 71 67 65 61 62 64 62 46 32 34 40 24 18 29 39 24 30 61 59 68 88 68 56 52 35 37 69 88 89 86 38 44 53 48 36
85 86 88 88 84 81 77 80 73 70 67 65 65 64 61 49 39 47 44 23 27 66 87 35 54 76 83 85 81 51 40 49 37 39 58 76 58 41 72 89 80 59 28
77 88 87 88 86 82 81 80 77 75 73 71 70 67 62 54 43 56 48 29 56 89 92 79 36 42 77 88 62 35 59 62 72 38 39 39 40 76 90 94 76 35 26
83 87 87 85 89 76 83 80 80 79 78 73 75 70 63 58 47 60 67 54 73 87 88 76 34 33 46 65 62 52 83 89 90 84 62 56 81 84 72 53 34 28 29
91 86 81 90 90 74 76 80 78 82 82 77 80 79 62 59 52 72 75 61 73 80 64 45 25 27 39 36 50 72 88 88 88 86 83 82 70 41 32 32 32 32 31
89 84 85 91 95 85 74 77 75 78 79 77 82 79 78 64 59 47 82 77 75 77 67 40 24 25 30 32 42 74 81 82 81 81 73 58 36 31 32 33 35 36 34
79 93 84 88 92 92 80 77 74 76 77 73 76 79 76 70 65 48 67 84 71 54 47 35 28 27 32 32 41 72 75 66 68 69 66 63 40 32 35 38 39 39 37
91 88 83 85 92 94 90 79 76 75 70 73 76 77 75 74 65 63 47 77 87 63 32 29 30 28 31 34 37 53 61 56 52 66 53 47 33 34 37 38 38 39 38
62 91 94 80 88 90 94 91 78 71 70 71 73 77 75 73 63 59 45 70 85 86 54 29 28 28 30 31 33 40 47 44 41 42 43 42 36 36 37 37 38 38 39
23 40 72 86 76 87 86 96 97 85 82 76 73 73 72 70 61 58 53 57 75 88 80 47 28 30 33 34 33 31 34 37 38 40 40 44 38 37 37 37 38 38 40
13 16 24 49 85 77 89 86 90 93 92 87 83 77 72 67 64 58 61 62 62 76 88 74 37 30 35 37 37 35 33 36 44 42 40 46 47 43 38 38 38 39 40
14 12 12 16 27 59 87 89 87 88 91 90 88 82 76 74 70 67 62 66 62 65 80 86 68 30 34 37 37 38 36 38 48 44 40 45 49 44 39 39 38 38 38
15 14 13 11 12 18 41 95 97 88 86 88 88 86 83 77 72 71 70 72 70 69 74 85 86 45 28 35 38 38 42 40 48 51 51 48 47 43 37 35 35 36 38
27 27 24 18 13 11 13 22 68 98 92 83 86 87 87 85 78 73 70 74 73 71 72 75 83 77 38 29 37 39 40 43 45 52 50 52 54 48 42 38 36 36 35
34 37 38 37 27 19 15 12 15 34 76 94 91 89 88 85 84 79 71 72 76 78 75 77 76 83 78 48 30 37 41 42 50 64 56 54 56 52 45 38 37 37 36
39 40 41 41 44 45 31 18 14 12 23 56 89 94 92 90 85 82 76 73 74 84 87 84 81 82 82 79 63 34 37 50 50 59 63 62 64 58 52 44 39 39 40
50 46 44 43 42 40 37 37 22 16 14 15 33 80 95 92 95 90 84 74 72 78 84 88 87 89 92 91 81 66 40 42 58 66 70 64 63 59 59 54 49 44 43
51 50 48 49 47 44 43 40 43 34 22 18 14 23 81 95 90 92 93 85 77 75 77 85 86 81 84 92 86 76 62 44 47 57 69 70 65 64 62 62 52 48 46
45 46 47 48 51 53 48 49 45 46 44 30 24 18 18 74 94 94 88 89 84 80 81 83 85 82 79 82 85 79 77 66 51 54 65 64 67 64 62 60 56 52 52
58 56 55 52 48 47 54 56 54 52 44 38 29 24 18 19 63 95 98 88 86 85 84 88 88 81 83 78 83 83 79 75 72 67 61 59 64 62 61 59 57 56 54
83 84 70 69 59 62 60 55 68 68 58 54 47 40 27 19 19 48 92 100 96 91 83 89 88 85 89 86 88 92 88 84 81 75 70 73 70 62 66 65 60 57 58
90 97 85 83 82 82 82 76 74 81 71 66 57 52 43 33 23 24 41 72 94 98 94 88 88 86 86 87 90 99 94 89 88 77 75 75 73 63 66 64 61 56 56
87 90 89 85 81 91 93 86 80 89 76 74 66 60 53 46 36 28 30 42 66 98 99 99 97 98 89 84 88 91 100 95 88 84 81 77 79 74 76 76 71 64 59
85 92 99 93 83 90 92 84 89 93 78 73 69 64 58 54 53 61 60 61 60 77 97 99 96 99 100 98 89 89 93 90 92 89 86 82 83 71 63 61 61 60 62
86 97 100 91 80 89 89 79 89 82 81 74 71 67 64 58 55 72 74 64 61 56 63 81 91 94 91 93 98 100 92 95 97 89 86 79 77 76 77 73 65 64 64
83 92 100 83 82 86 85 90 98 95 92 77 72 69 68 62 57 63 68 66 66 62 69 66 70 91 92 91 99 97 99 99 99 100 100 98 90 74 81 77 70 72 68